                ,  0.482,  0.579,  0.676,  0.773,  0.870,  0.967,  1.064,  1.161,  1.258,  1.354,  1.451,  1.548,  1.645,  1.742,  1.839,  1.936,  2.033,  2.130,  2.227,  2.324,  2.421,  2.518,  2.615,  2.712,  2.809,  2.906,  3.003,  3.099,  3.196,  3.293,  3.390,  3.487,  3.584,  3.681,  3.778,  3.875,  3.972,  4.069,  4.166,  4.263,  4.360,  4.457,  4.554,  4.651,  4.748,  4.844,  4.941,  5.038,  5.135,  5.232,  5.329,  5.426,  5.523,  5.620,  5.717,  5.814,  5.911,  6.008,  6.105,  6.202,  6.299,  6.396,  6.493,  6.589,  6.686,  6.783,  6.880,  6.977,  7.074,  7.171,  7.268,  7.365,  7.462,  7.559,  7.656,  7.753,  7.850,  7.947,  8.044,  8.141
2013/06/19 00:00,  999.0,  999.0,  999.0,  999.0,   12.5,   13.4,   16.0,   18.2,   19.3,   19.1,   18.6,   18.3,   18.2,   17.3,   17.8,   18.2,   18.7,   18.4,   18.5,   18.5,   19.2,   18.8,   18.3,  999.0,   17.1,   15.4,   13.8,   15.1,  999.0,  999.0,   15.9,  999.0,  999.0,  999.0,  999.0,  999.0,  999.0,  999.0,  999.0,  999.0,  999.0,  999.0,  999.0,  999.0,  999.0,  999.0,  999.0,  999.0,  999.0,  999.0,  999.0,  999.0,  999.0,  999.0,  999.0,  999.0,  999.0,  999.0,  999.0,  999.0,  999.0,  999.0,  999.0,  999.0,  999.0,  999.0,  999.0,  999.0,  999.0,  999.0,  999.0,  999.0,  999.0,  999.0,  999.0,  999.0,  999.0,  999.0,  999.0,  999.0
2013/06/19 00:10,  999.0,  999.0,  999.0,  999.0,  999.0,   15.6,   18.0,   19.7,  999.0,   19.4,   19.4,   19.0,   18.6,   18.4,   18.4,   18.4,   18.5,   18.6,   18.8,   18.7,   18.9,   18.4,   17.8,   16.6,   17.0,   16.3,   14.7,   15.8,  999.0,  999.0,  999.0,  999.0,  999.0,  999.0,  999.0,  999.0,  999.0,  999.0,  999.0,  999.0,  999.0,  999.0,  999.0,  999.0,  999.0,  999.0,  999.0,  999.0,  999.0,  999.0,  999.0,  999.0,  999.0,  999.0,  999.0,  999.0,  999.0,  999.0,  999.0,  999.0,  999.0,  999.0,  999.0,  999.0,  999.0,  999.0,  999.0,  999.0,  999.0,  999.0,  999.0,  999.0,  999.0,  999.0,  999.0,  999.0,  999.0,  999.0,  999.0,  999.0
2013/06/19 00:20,  999.0,  999.0,  999.0,  999.0,   14.6,   16.8,   19.4,  999.0,   20.9,   19.9,   19.5,   19.0,   18.3,   18.3,   18.6,   18.9,   19.1,   19.2,   19.1,   18.4,   18.2,   18.6,   18.6,   17.8,  999.0,   16.9,   15.9,  999.0,  999.0,  999.0,  999.0,  999.0,  999.0,  999.0,  999.0,  999.0,  999.0,  999.0,  999.0,  999.0,  999.0,  999.0,  999.0,  999.0,  999.0,  999.0,  999.0,  999.0,  999.0,  999.0,  999.0,  999.0,  999.0,  999.0,  999.0,  999.0,  999.0,  999.0,  999.0,  999.0,  999.0,  999.0,  999.0,  999.0,  999.0,  999.0,  999.0,  999.0,  999.0,  999.0,  999.0,  999.0,  999.0,  999.0,  999.0,  999.0,  999.0,  999.0,  999.0,  999.0
2013/06/19 00:30,  999.0,  999.0,  999.0,  999.0,   15.3,   17.7,   19.7,  999.0,   20.0,   20.2,   19.1,   19.1,   19.4,   18.8,   18.9,   18.8,   18.7,   19.1,   18.8,   19.4,   19.5,   19.2,   18.6,   18.3,   17.9,  999.0,   17.3,  999.0,  999.0,  999.0,  999.0,  999.0,  999.0,  999.0,  999.0,  999.0,  999.0,  999.0,  999.0,  999.0,  999.0,  999.0,  999.0,  999.0,  999.0,  999.0,  999.0,  999.0,  999.0,  999.0,  999.0,  999.0,  999.0,  999.0,  999.0,  999.0,  999.0,  999.0,  999.0,  999.0,  999.0,  999.0,  999.0,  999.0,  999.0,  999.0,  999.0,  999.0,  999.0,  999.0,  999.0,  999.0,  999.0,  999.0,  999.0,  999.0,  999.0,  999.0,  999.0,  999.0
2013/06/19 00:40,  999.0,  999.0,  999.0,  999.0,   16.6,   18.1,   20.8,  999.0,  999.0,   19.9,   19.6,   19.0,   18.8,   18.4,   18.8,   18.4,   18.6,   18.9,   18.7,   18.1,   19.2,   18.2,   17.4,   17.2,   16.8,   16.3,   17.2,   17.2,  999.0,  999.0,  999.0,  999.0,  999.0,  999.0,  999.0,  999.0,  999.0,  999.0,  999.0,  999.0,  999.0,  999.0,  999.0,  999.0,  999.0,  999.0,  999.0,  999.0,  999.0,  999.0,  999.0,  999.0,  999.0,  999.0,  999.0,  999.0,  999.0,  999.0,  999.0,  999.0,  999.0,  999.0,  999.0,  999.0,  999.0,  999.0,  999.0,  999.0,  999.0,  999.0,  999.0,  999.0,  999.0,  999.0,  999.0,  999.0,  999.0,  999.0,  999.0,  999.0
2013/06/19 00:50,  999.0,  999.0,  999.0,  999.0,   15.8,   18.1,   21.2,  999.0,  999.0,   20.4,  999.0,  999.0,   21.5,   19.6,   19.7,   19.5,   19.0,   18.3,   17.8,   17.5,   18.1,   17.8,   18.5,  999.0,   18.4,   18.6,   19.0,   18.5,   19.0,   19.6,  999.0,  999.0,  999.0,  999.0,  999.0,  999.0,  999.0,  999.0,  999.0,  999.0,  999.0,  999.0,  999.0,  999.0,  999.0,  999.0,  999.0,  999.0,  999.0,  999.0,  999.0,  999.0,  999.0,  999.0,  999.0,  999.0,  999.0,  999.0,  999.0,  999.0,  999.0,  999.0,  999.0,  999.0,  999.0,  999.0,  999.0,  999.0,  999.0,  999.0,  999.0,  999.0,  999.0,  999.0,  999.0,  999.0,  999.0,  999.0,  999.0,  999.0
2013/06/19 01:00,  999.0,  999.0,  999.0,   14.0,   16.1,   18.4,   18.7,   20.4,   20.0,  999.0,  999.0,  999.0,  999.0,  999.0,   20.6,   20.1,   20.7,   19.7,   19.7,   19.4,   19.5,   18.7,   19.6,  999.0,   18.6,   19.3,   18.5,  999.0,  999.0,   19.9,  999.0,   19.9,  999.0,  999.0,  999.0,  999.0,  999.0,  999.0,  999.0,  999.0,  999.0,  999.0,  999.0,  999.0,  999.0,  999.0,  999.0,  999.0,  999.0,  999.0,  999.0,  999.0,  999.0,  999.0,   17.5,   17.4,  999.0,   20.2,   20.5,  999.0,  999.0,  999.0,  999.0,  999.0,  999.0,  999.0,  999.0,  999.0,  999.0,  999.0,  999.0,  999.0,  999.0,  999.0,  999.0,  999.0,  999.0,  999.0,  999.0,  999.0
2013/06/19 01:10,  999.0,  999.0,  999.0,   16.2,   16.9,   18.1,   19.8,   20.5,  999.0,   20.7,   21.2,   21.3,   20.8,   20.4,   20.8,  999.0,  999.0,  999.0,  999.0,   20.2,   19.4,   19.4,   19.9,   19.6,   19.7,   18.9,   18.5,   18.9,   17.9,  999.0,   21.5,   19.7,   18.9,  999.0,  999.0,  999.0,  999.0,  999.0,  999.0,  999.0,  999.0,  999.0,  999.0,  999.0,  999.0,  999.0,  999.0,  999.0,  999.0,  999.0,  999.0,  999.0,  999.0,  999.0,  999.0,  999.0,  999.0,  999.0,  999.0,  999.0,  999.0,  999.0,  999.0,  999.0,  999.0,  999.0,  999.0,  999.0,  999.0,  999.0,  999.0,  999.0,  999.0,  999.0,  999.0,  999.0,  999.0,  999.0,  999.0,  999.0
2013/06/19 01:20,  999.0,  999.0,  999.0,   15.9,   16.2,   18.1,   19.9,  999.0,  999.0,  999.0,  999.0,   20.9,   20.7,   20.4,   20.4,  999.0,   21.3,  999.0,   19.3,   19.2,   18.8,   18.8,   18.5,   18.5,   18.7,   19.2,   19.4,   19.4,   20.2,  999.0,   20.3,  999.0,  999.0,  999.0,  999.0,  999.0,  999.0,  999.0,  999.0,  999.0,  999.0,  999.0,  999.0,  999.0,  999.0,  999.0,  999.0,  999.0,  999.0,  999.0,  999.0,  999.0,  999.0,  999.0,  999.0,  999.0,  999.0,  999.0,  999.0,  999.0,  999.0,   22.0,  999.0,  999.0,  999.0,  999.0,  999.0,  999.0,  999.0,  999.0,  999.0,  999.0,  999.0,  999.0,  999.0,  999.0,  999.0,  999.0,  999.0,  999.0
2013/06/19 01:30,  999.0,  999.0,  999.0,   14.8,   15.6,   17.7,   20.1,   20.9,   21.1,   20.6,   20.3,   19.7,   18.8,   19.6,   21.1,  999.0,  999.0,  999.0,  999.0,  999.0,  999.0,   19.0,  999.0,   19.7,   18.8,   20.2,  999.0,   20.6,   21.5,   21.4,   20.8,  999.0,  999.0,  999.0,  999.0,  999.0,  999.0,  999.0,  999.0,  999.0,  999.0,  999.0,  999.0,  999.0,  999.0,  999.0,  999.0,  999.0,  999.0,  999.0,  999.0,  999.0,  999.0,  999.0,  999.0,  999.0,  999.0,  999.0,   20.9,   20.7,   21.8,   21.9,   21.9,   22.3,   22.9,   23.2,   23.8,   24.4,   25.0,   26.2,   27.5,   28.2,   27.7,   27.9,   28.1,   27.9,   27.4,   27.6,   27.7,   28.1
2013/06/19 01:40,  999.0,  999.0,  999.0,   14.1,   15.5,   17.2,   19.4,   20.6,   20.9,  999.0,  999.0,   19.3,   19.1,   20.3,   21.5,  999.0,  999.0,  999.0,  999.0,  999.0,  999.0,  999.0,  999.0,   19.7,  999.0,  999.0,  999.0,  999.0,  999.0,   21.0,   21.7,  999.0,  999.0,  999.0,  999.0,  999.0,  999.0,  999.0,  999.0,  999.0,  999.0,  999.0,  999.0,  999.0,  999.0,  999.0,  999.0,  999.0,  999.0,  999.0,  999.0,  999.0,   19.5,   20.1,   19.8,   21.3,   21.6,   20.7,   20.7,   20.6,   20.7,   21.6,   22.1,   22.3,   22.2,   22.0,   22.7,   23.3,   24.3,   25.1,   26.3,   26.5,   26.6,   26.3,   26.1,   26.3,   27.1,   27.2,   26.8,   26.7
2013/06/19 01:50,  999.0,  999.0,  999.0,   14.1,   15.6,   17.0,   19.5,   21.1,   21.1,   20.4,   19.7,   18.6,   18.5,   19.9,   21.4,   22.2,   23.3,  999.0,  999.0,  999.0,   19.2,   19.9,  999.0,   20.3,  999.0,  999.0,  999.0,  999.0,   21.3,  999.0,  999.0,  999.0,  999.0,  999.0,  999.0,  999.0,  999.0,  999.0,  999.0,  999.0,  999.0,  999.0,  999.0,  999.0,  999.0,  999.0,   19.9,  999.0,  999.0,  999.0,  999.0,  999.0,   19.4,   20.6,   20.5,   20.2,   20.2,   20.4,   21.2,   21.5,   21.8,   22.6,   22.8,   23.1,   23.8,   24.2,   24.3,   24.6,   24.7,   25.5,   25.3,   25.0,   26.1,   25.4,   25.2,   25.1,   25.2,   25.3,   25.0,   24.8
2013/06/19 02:00,  999.0,  999.0,  999.0,   13.9,   14.6,   16.2,   18.7,   21.0,  999.0,   20.4,   20.7,  999.0,   19.2,   20.8,   22.4,   23.0,  999.0,   22.6,  999.0,  999.0,  999.0,  999.0,  999.0,  999.0,  999.0,   20.1,   20.9,  999.0,  999.0,   19.8,   21.3,  999.0,  999.0,  999.0,  999.0,  999.0,  999.0,  999.0,  999.0,  999.0,  999.0,  999.0,  999.0,  999.0,  999.0,  999.0,  999.0,  999.0,  999.0,   18.9,   19.8,   19.0,   20.1,   20.4,   19.8,   19.7,   19.8,  999.0,   19.0,   19.8,   19.5,   19.3,   21.0,   21.6,   23.6,   24.0,   24.8,   25.5,   26.2,   27.3,   27.9,   28.0,   27.8,   26.5,   26.0,   24.5,   24.5,   23.9,   23.4,   23.1
2013/06/19 02:10,  999.0,  999.0,  999.0,   14.4,   15.6,   17.3,   19.2,   21.0,   21.9,   21.5,   20.2,   17.3,  999.0,   19.8,   21.6,   22.5,  999.0,  999.0,  999.0,  999.0,  999.0,  999.0,  999.0,  999.0,   20.0,  999.0,   19.3,   20.0,   20.6,   19.9,  999.0,  999.0,  999.0,  999.0,  999.0,  999.0,  999.0,  999.0,  999.0,  999.0,  999.0,  999.0,  999.0,  999.0,  999.0,  999.0,  999.0,   18.1,   18.6,   18.2,   18.5,   18.4,   19.2,  999.0,  999.0,  999.0,  999.0,  999.0,  999.0,  999.0,  999.0,   19.5,   22.0,   23.7,   24.9,   24.9,   26.1,   26.7,   27.0,   27.0,   27.1,   26.9,   26.3,   26.4,   24.9,   22.8,   22.1,   21.6,   21.2,   20.0
2013/06/19 02:20,  999.0,  999.0,  999.0,   14.9,   16.4,   18.2,   20.2,   21.4,   22.1,   21.7,   21.0,   19.8,  999.0,   18.7,   20.4,   21.7,  999.0,  999.0,  999.0,  999.0,  999.0,  999.0,  999.0,  999.0,  999.0,  999.0,  999.0,   20.1,   19.6,  999.0,  999.0,  999.0,  999.0,  999.0,  999.0,  999.0,  999.0,  999.0,  999.0,  999.0,  999.0,  999.0,  999.0,  999.0,  999.0,  999.0,  999.0,  999.0,   17.4,  999.0,  999.0,  999.0,  999.0,  999.0,  999.0,  999.0,  999.0,  999.0,  999.0,  999.0,  999.0,  999.0,  999.0,  999.0,  999.0,  999.0,  999.0,  999.0,  999.0,   22.4,   23.4,   23.5,   23.0,   23.2,   22.4,  999.0,   21.6,   20.9,   20.4,   19.4
2013/06/19 02:30,  999.0,  999.0,  999.0,   16.0,   17.0,   19.0,   20.7,   21.1,   20.4,   19.3,   18.9,   18.3,   19.7,   21.7,   22.3,   24.3,  999.0,  999.0,  999.0,  999.0,  999.0,  999.0,  999.0,   21.7,  999.0,  999.0,  999.0,  999.0,   20.6,  999.0,  999.0,  999.0,  999.0,  999.0,  999.0,  999.0,  999.0,  999.0,  999.0,  999.0,  999.0,  999.0,  999.0,  999.0,  999.0,   18.0,   18.4,   19.9,  999.0,  999.0,  999.0,  999.0,  999.0,  999.0,  999.0,  999.0,  999.0,  999.0,  999.0,  999.0,  999.0,  999.0,  999.0,  999.0,  999.0,  999.0,  999.0,  999.0,  999.0,  999.0,   22.2,  999.0,  999.0,  999.0,  999.0,  999.0,  999.0,  999.0,  999.0,  999.0
2013/06/19 02:40,  999.0,  999.0,  999.0,   16.5,   18.7,   20.6,   20.4,   19.6,   18.4,   18.4,   19.0,   20.6,   21.7,   23.4,  999.0,  999.0,  999.0,  999.0,  999.0,  999.0,  999.0,  999.0,  999.0,  999.0,  999.0,  999.0,   19.9,  999.0,  999.0,  999.0,  999.0,  999.0,  999.0,  999.0,  999.0,  999.0,  999.0,  999.0,  999.0,  999.0,  999.0,  999.0,  999.0,  999.0,  999.0,  999.0,   19.9,   20.0,   20.5,  999.0,  999.0,  999.0,  999.0,  999.0,  999.0,  999.0,  999.0,  999.0,  999.0,  999.0,  999.0,  999.0,  999.0,  999.0,  999.0,  999.0,  999.0,  999.0,  999.0,  999.0,  999.0,  999.0,  999.0,  999.0,  999.0,  999.0,  999.0,  999.0,  999.0,  999.0
2013/06/19 02:50,  999.0,  999.0,  999.0,   17.4,   19.8,   20.7,  999.0,   17.2,   17.7,   19.2,   20.4,   21.9,  999.0,  999.0,  999.0,  999.0,  999.0,  999.0,  999.0,  999.0,  999.0,  999.0,  999.0,  999.0,  999.0,  999.0,  999.0,  999.0,  999.0,  999.0,  999.0,  999.0,  999.0,  999.0,  999.0,  999.0,  999.0,  999.0,  999.0,  999.0,  999.0,  999.0,  999.0,  999.0,   19.4,   20.4,   20.0,   20.0,   20.3,   20.9,  999.0,  999.0,  999.0,  999.0,  999.0,  999.0,  999.0,  999.0,  999.0,  999.0,  999.0,  999.0,  999.0,  999.0,  999.0,  999.0,  999.0,  999.0,  999.0,  999.0,  999.0,  999.0,  999.0,  999.0,  999.0,  999.0,  999.0,  999.0,  999.0,  999.0
2013/06/19 03:00,  999.0,  999.0,  999.0,   17.5,   19.0,  999.0,   17.1,   18.2,   19.8,   21.3,   23.1,  999.0,  999.0,  999.0,  999.0,  999.0,  999.0,  999.0,  999.0,  999.0,  999.0,  999.0,   23.1,   23.0,   22.5,  999.0,  999.0,  999.0,  999.0,  999.0,  999.0,  999.0,  999.0,  999.0,  999.0,  999.0,  999.0,  999.0,  999.0,  999.0,  999.0,   20.2,  999.0,  999.0,   22.4,   21.7,   20.5,   20.8,   21.1,   20.0,  999.0,  999.0,  999.0,  999.0,  999.0,  999.0,  999.0,  999.0,  999.0,  999.0,  999.0,  999.0,  999.0,  999.0,  999.0,  999.0,  999.0,  999.0,  999.0,  999.0,  999.0,  999.0,  999.0,   18.6,   19.1,   19.7,   19.9,   19.8,   20.2,  999.0
2013/06/19 03:10,  999.0,  999.0,  999.0,   17.6,   18.1,   16.6,   17.7,   19.0,   20.2,   21.6,   23.0,   22.8,   23.5,   24.2,  999.0,  999.0,  999.0,  999.0,  999.0,  999.0,  999.0,  999.0,   22.0,   21.9,   21.8,  999.0,  999.0,  999.0,  999.0,  999.0,  999.0,  999.0,  999.0,  999.0,  999.0,  999.0,  999.0,  999.0,  999.0,  999.0,  999.0,  999.0,  999.0,   19.6,   19.9,   19.6,   19.7,   20.7,   19.6,   19.6,   21.4,  999.0,  999.0,  999.0,  999.0,  999.0,  999.0,   21.9,   22.5,  999.0,  999.0,  999.0,  999.0,  999.0,  999.0,  999.0,  999.0,  999.0,  999.0,  999.0,   17.7,   19.5,   18.9,   19.9,   20.5,   21.4,   21.3,   21.3,   21.1,  999.0
2013/06/19 03:20,  999.0,  999.0,  999.0,   17.1,   18.2,  999.0,   17.6,   18.5,   19.2,  999.0,   21.4,   21.7,   22.7,   23.2,   23.0,  999.0,  999.0,  999.0,  999.0,  999.0,   21.0,   21.5,   22.3,   21.3,   21.7,   21.0,   20.6,  999.0,  999.0,  999.0,  999.0,  999.0,  999.0,  999.0,  999.0,  999.0,  999.0,  999.0,  999.0,  999.0,  999.0,  999.0,  999.0,  999.0,  999.0,  999.0,   20.3,  999.0,  999.0,  999.0,  999.0,  999.0,  999.0,  999.0,  999.0,   22.2,  999.0,  999.0,  999.0,  999.0,  999.0,  999.0,  999.0,  999.0,  999.0,  999.0,  999.0,  999.0,  999.0,  999.0,  999.0,  999.0,  999.0,  999.0,  999.0,  999.0,  999.0,  999.0,  999.0,  999.0
2013/06/19 03:30,  999.0,  999.0,  999.0,   16.9,   17.9,  999.0,   17.5,   18.3,   18.1,   17.9,   18.9,   20.3,   22.1,  999.0,   22.2,   20.4,  999.0,   19.3,  999.0,   20.9,  999.0,   21.8,   22.5,  999.0,  999.0,  999.0,   21.2,   20.4,  999.0,  999.0,  999.0,  999.0,  999.0,  999.0,  999.0,  999.0,  999.0,  999.0,  999.0,  999.0,  999.0,  999.0,  999.0,  999.0,  999.0,   19.1,   20.0,  999.0,  999.0,  999.0,  999.0,  999.0,  999.0,  999.0,  999.0,   20.9,   21.6,   21.8,   20.9,   20.6,   20.6,  999.0,  999.0,   19.9,   20.1,   20.1,   20.2,   19.9,  999.0,  999.0,  999.0,  999.0,  999.0,  999.0,  999.0,  999.0,  999.0,  999.0,  999.0,  999.0
2013/06/19 03:40,  999.0,  999.0,  999.0,   16.3,   17.6,  999.0,   16.4,   17.3,   17.5,  999.0,   18.9,   20.7,   22.1,   22.6,  999.0,  999.0,  999.0,  999.0,  999.0,   20.3,   21.0,  999.0,  999.0,  999.0,   20.3,  999.0,  999.0,   20.8,  999.0,  999.0,  999.0,  999.0,  999.0,  999.0,  999.0,  999.0,  999.0,  999.0,  999.0,  999.0,  999.0,  999.0,  999.0,   19.7,   20.8,   20.6,   21.0,  999.0,   21.5,  999.0,  999.0,  999.0,   20.3,  999.0,  999.0,   20.6,   21.4,   21.5,   21.4,   21.2,   21.5,   21.2,   21.5,   21.8,   21.7,   21.1,  999.0,  999.0,  999.0,  999.0,  999.0,  999.0,  999.0,  999.0,  999.0,  999.0,  999.0,  999.0,  999.0,  999.0
2013/06/19 03:50,  999.0,  999.0,  999.0,  999.0,   15.8,  999.0,   16.4,   17.2,   17.7,  999.0,  999.0,   20.3,   21.7,  999.0,   20.6,   20.2,   20.7,   18.3,   17.7,   18.3,  999.0,   18.3,   18.9,  999.0,   20.5,   20.6,   19.7,  999.0,   21.4,  999.0,  999.0,   22.0,  999.0,  999.0,  999.0,  999.0,  999.0,  999.0,  999.0,  999.0,  999.0,  999.0,   19.9,   22.2,   22.4,  999.0,  999.0,  999.0,  999.0,  999.0,   21.6,  999.0,  999.0,  999.0,  999.0,   22.3,   22.4,   21.4,  999.0,  999.0,  999.0,  999.0,   22.2,  999.0,  999.0,  999.0,  999.0,  999.0,  999.0,  999.0,  999.0,  999.0,  999.0,  999.0,  999.0,  999.0,  999.0,  999.0,  999.0,  999.0
2013/06/19 04:00,  999.0,  999.0,  999.0,  999.0,  999.0,  999.0,  999.0,  999.0,   16.7,   17.2,   18.1,   20.2,   21.0,  999.0,  999.0,   21.6,   21.5,   20.7,   21.0,  999.0,  999.0,   17.6,  999.0,   18.5,   19.2,   20.1,   20.0,   20.5,   20.2,  999.0,  999.0,  999.0,  999.0,  999.0,  999.0,  999.0,  999.0,  999.0,  999.0,  999.0,  999.0,  999.0,   21.1,   22.0,  999.0,  999.0,   21.9,  999.0,  999.0,  999.0,  999.0,  999.0,  999.0,  999.0,  999.0,  999.0,  999.0,  999.0,  999.0,  999.0,  999.0,  999.0,  999.0,   14.3,   14.5,   15.5,  999.0,   16.7,   17.3,   17.9,   18.7,   18.5,   19.1,   19.3,   20.3,   20.6,   21.6,   22.1,  999.0,  999.0
2013/06/19 04:10,  999.0,  999.0,  999.0,  999.0,   15.3,   14.9,   15.6,   16.2,   18.1,   19.0,   21.0,   21.9,   21.7,   21.2,   21.9,   21.7,   22.4,   21.0,   20.2,   20.1,   19.2,   18.9,   18.2,   17.4,   18.1,   19.0,   19.8,   20.8,   20.1,  999.0,  999.0,  999.0,  999.0,  999.0,  999.0,  999.0,   20.2,   21.2,  999.0,  999.0,  999.0,   20.3,   21.7,  999.0,  999.0,  999.0,  999.0,  999.0,  999.0,  999.0,  999.0,  999.0,  999.0,  999.0,  999.0,  999.0,  999.0,  999.0,  999.0,  999.0,   14.7,   14.0,   13.9,   14.6,   15.2,   16.0,   16.8,   18.0,   18.5,   19.5,   19.2,   19.6,   20.7,   21.1,   21.3,   21.7,   21.3,   21.9,   22.6,   23.0
2013/06/19 04:20,  999.0,  999.0,  999.0,  999.0,   17.2,   14.2,   15.3,   16.4,   17.1,   18.2,   19.7,   20.9,   20.5,   21.1,  999.0,  999.0,   19.9,   19.8,   19.7,   20.4,   19.4,   18.9,   19.6,   19.1,  999.0,   19.2,   20.7,  999.0,  999.0,  999.0,  999.0,  999.0,  999.0,  999.0,   21.1,  999.0,   20.4,   21.5,   21.7,   22.5,  999.0,  999.0,  999.0,  999.0,  999.0,  999.0,  999.0,  999.0,  999.0,  999.0,  999.0,  999.0,  999.0,  999.0,  999.0,  999.0,  999.0,  999.0,  999.0,   17.8,   16.7,   14.5,   14.4,   15.3,   16.0,   17.0,   17.6,   17.9,   19.1,   19.5,   20.3,   19.5,   20.2,   20.4,   20.5,   20.9,   21.1,   21.4,   22.0,  999.0
2013/06/19 04:30,  999.0,  999.0,  999.0,  999.0,  999.0,  999.0,  999.0,  999.0,  999.0,   17.2,   18.4,   19.5,   20.5,   21.6,   22.1,  999.0,  999.0,   18.6,   18.0,   18.2,   18.5,   18.6,  999.0,  999.0,   19.1,  999.0,  999.0,   21.1,  999.0,  999.0,  999.0,  999.0,  999.0,  999.0,  999.0,  999.0,   21.4,   23.2,  999.0,  999.0,  999.0,  999.0,  999.0,  999.0,  999.0,  999.0,  999.0,  999.0,  999.0,  999.0,  999.0,  999.0,   24.7,   24.6,   23.2,   22.9,  999.0,  999.0,  999.0,   18.6,  999.0,  999.0,  999.0,  999.0,  999.0,  999.0,  999.0,   21.2,  999.0,  999.0,   20.8,  999.0,   21.3,  999.0,  999.0,  999.0,  999.0,  999.0,  999.0,  999.0
2013/06/19 04:40,  999.0,  999.0,  999.0,   13.5,  999.0,  999.0,  999.0,   15.1,   16.6,   17.3,   19.0,   19.6,   20.7,   21.8,   22.3,  999.0,  999.0,   19.8,   19.4,   18.8,   18.3,   19.0,  999.0,  999.0,  999.0,  999.0,  999.0,  999.0,  999.0,  999.0,  999.0,   22.9,  999.0,  999.0,  999.0,  999.0,  999.0,   22.7,   22.8,   23.3,  999.0,  999.0,  999.0,  999.0,  999.0,  999.0,   26.3,   28.5,   28.7,  999.0,  999.0,  999.0,  999.0,  999.0,  999.0,  999.0,  999.0,  999.0,  999.0,  999.0,  999.0,  999.0,  999.0,  999.0,  999.0,  999.0,  999.0,  999.0,  999.0,  999.0,  999.0,  999.0,  999.0,  999.0,  999.0,  999.0,  999.0,  999.0,  999.0,  999.0
2013/06/19 04:50,  999.0,  999.0,  999.0,   14.5,  999.0,  999.0,  999.0,  999.0,  999.0,  999.0,  999.0,  999.0,   20.7,   22.1,   23.5,  999.0,  999.0,  999.0,   21.1,   19.7,   19.8,   19.9,  999.0,  999.0,  999.0,   20.2,   20.1,  999.0,  999.0,  999.0,  999.0,  999.0,  999.0,  999.0,  999.0,  999.0,  999.0,  999.0,  999.0,  999.0,  999.0,  999.0,  999.0,  999.0,  999.0,  999.0,  999.0,   25.4,  999.0,   26.8,  999.0,   26.6,   25.9,  999.0,  999.0,  999.0,  999.0,  999.0,  999.0,  999.0,  999.0,  999.0,  999.0,  999.0,  999.0,  999.0,  999.0,  999.0,  999.0,  999.0,  999.0,  999.0,  999.0,  999.0,  999.0,  999.0,  999.0,  999.0,  999.0,  999.0
2013/06/19 05:00,  999.0,  999.0,  999.0,   15.9,  999.0,  999.0,  999.0,  999.0,  999.0,  999.0,   19.2,   19.9,   21.1,   22.6,   24.2,  999.0,  999.0,   22.9,   21.2,   20.3,   20.9,  999.0,   20.1,  999.0,  999.0,   20.8,   20.5,   20.5,   20.4,   20.8,   20.5,  999.0,  999.0,  999.0,  999.0,  999.0,  999.0,  999.0,  999.0,  999.0,  999.0,  999.0,  999.0,  999.0,  999.0,  999.0,  999.0,  999.0,  999.0,  999.0,  999.0,  999.0,  999.0,  999.0,  999.0,  999.0,  999.0,  999.0,  999.0,  999.0,  999.0,  999.0,  999.0,  999.0,  999.0,  999.0,  999.0,  999.0,  999.0,  999.0,  999.0,  999.0,  999.0,  999.0,  999.0,  999.0,  999.0,  999.0,   31.6,  999.0
2013/06/19 05:10,  999.0,  999.0,  999.0,   15.8,  999.0,  999.0,  999.0,  999.0,   16.9,   18.4,   19.6,   20.6,   21.6,  999.0,  999.0,  999.0,  999.0,   22.7,   21.4,   21.0,   21.7,  999.0,  999.0,  999.0,   20.2,   20.7,   19.0,   19.6,   19.3,   19.0,   19.0,  999.0,  999.0,  999.0,  999.0,  999.0,  999.0,  999.0,  999.0,  999.0,  999.0,  999.0,  999.0,  999.0,  999.0,  999.0,  999.0,  999.0,  999.0,  999.0,  999.0,  999.0,  999.0,  999.0,  999.0,  999.0,  999.0,  999.0,  999.0,  999.0,  999.0,  999.0,  999.0,  999.0,  999.0,  999.0,  999.0,  999.0,  999.0,  999.0,  999.0,  999.0,  999.0,  999.0,  999.0,  999.0,  999.0,  999.0,  999.0,  999.0
2013/06/19 05:20,  999.0,  999.0,  999.0,   14.6,  999.0,  999.0,   16.1,   17.2,   18.4,   19.4,   20.1,   20.1,  999.0,  999.0,  999.0,  999.0,  999.0,   21.4,   21.1,   21.1,  999.0,  999.0,  999.0,  999.0,  999.0,  999.0,  999.0,  999.0,  999.0,  999.0,  999.0,  999.0,  999.0,  999.0,  999.0,  999.0,  999.0,  999.0,  999.0,  999.0,  999.0,  999.0,  999.0,  999.0,  999.0,  999.0,  999.0,  999.0,  999.0,  999.0,  999.0,  999.0,  999.0,  999.0,  999.0,   26.5,   25.1,  999.0,  999.0,   26.1,  999.0,  999.0,  999.0,  999.0,  999.0,  999.0,  999.0,  999.0,  999.0,  999.0,  999.0,  999.0,  999.0,  999.0,  999.0,  999.0,  999.0,  999.0,  999.0,  999.0
2013/06/19 05:30,  999.0,  999.0,  999.0,   15.1,   15.3,  999.0,  999.0,   16.4,   17.7,   18.2,   19.3,  999.0,   21.4,  999.0,  999.0,  999.0,  999.0,  999.0,   20.2,   20.5,  999.0,  999.0,  999.0,  999.0,  999.0,  999.0,  999.0,  999.0,  999.0,  999.0,  999.0,  999.0,  999.0,  999.0,  999.0,  999.0,  999.0,  999.0,  999.0,  999.0,  999.0,  999.0,  999.0,  999.0,  999.0,  999.0,  999.0,  999.0,  999.0,  999.0,   23.3,   23.5,  999.0,  999.0,  999.0,  999.0,  999.0,  999.0,  999.0,  999.0,  999.0,  999.0,  999.0,  999.0,  999.0,  999.0,  999.0,  999.0,  999.0,  999.0,  999.0,  999.0,  999.0,  999.0,  999.0,  999.0,  999.0,  999.0,  999.0,  999.0
2013/06/19 05:40,  999.0,  999.0,  999.0,   15.9,   16.6,   15.5,   14.5,  999.0,   14.9,   16.4,   17.6,   18.8,   19.9,   21.6,  999.0,  999.0,  999.0,  999.0,  999.0,   20.3,   19.9,  999.0,  999.0,  999.0,  999.0,  999.0,  999.0,  999.0,  999.0,   19.3,   19.2,   19.6,  999.0,  999.0,  999.0,  999.0,  999.0,  999.0,  999.0,  999.0,  999.0,  999.0,  999.0,  999.0,  999.0,  999.0,  999.0,  999.0,  999.0,  999.0,  999.0,  999.0,  999.0,  999.0,  999.0,  999.0,  999.0,  999.0,  999.0,  999.0,  999.0,  999.0,  999.0,  999.0,  999.0,  999.0,  999.0,  999.0,  999.0,  999.0,  999.0,  999.0,  999.0,  999.0,  999.0,  999.0,  999.0,  999.0,  999.0,  999.0
2013/06/19 05:50,  999.0,  999.0,  999.0,   13.9,   15.9,   16.8,   17.1,   16.7,  999.0,   16.2,   17.2,   18.5,   20.1,   21.6,  999.0,  999.0,  999.0,   24.4,   23.7,   20.9,   20.4,   19.9,  999.0,   19.5,  999.0,  999.0,   21.1,  999.0,  999.0,  999.0,   18.7,   18.2,  999.0,  999.0,  999.0,  999.0,  999.0,   16.5,  999.0,  999.0,  999.0,  999.0,  999.0,  999.0,  999.0,  999.0,  999.0,  999.0,   22.2,   24.0,   24.6,  999.0,  999.0,  999.0,   24.6,  999.0,   24.1,   24.0,   24.7,   24.3,   24.1,   24.0,   23.8,   23.4,   23.1,  999.0,  999.0,  999.0,  999.0,  999.0,  999.0,  999.0,  999.0,  999.0,  999.0,  999.0,  999.0,  999.0,  999.0,  999.0
2013/06/19 06:00,  999.0,  999.0,  999.0,   13.7,   15.4,   16.4,   17.2,   16.4,   15.4,   16.1,   17.5,   18.6,   19.9,   21.1,   22.4,   24.3,   23.5,   24.6,   23.6,   21.4,   20.9,   19.8,   19.8,   20.1,   20.4,   20.7,   20.3,   22.4,  999.0,  999.0,  999.0,  999.0,  999.0,  999.0,  999.0,  999.0,  999.0,  999.0,  999.0,  999.0,  999.0,  999.0,  999.0,  999.0,  999.0,   20.2,   21.6,   21.5,   23.6,  999.0,   22.1,   21.9,   22.5,   24.6,   25.5,   26.8,   27.0,   28.2,   27.6,   27.0,   27.2,   26.7,   26.1,   25.5,   24.8,   24.2,   24.2,   23.7,   22.7,   23.1,   22.8,   22.5,   21.4,   20.9,   21.4,  999.0,  999.0,  999.0,  999.0,  999.0
2013/06/19 06:10,  999.0,  999.0,  999.0,  999.0,   14.7,   15.9,   16.3,   15.6,   15.9,   17.1,   18.5,   19.4,   21.3,   22.8,   26.1,  999.0,   25.6,   23.7,   22.8,   20.6,   20.0,   19.7,   19.4,   19.9,   20.1,   19.9,   20.2,   19.8,   19.8,   20.6,  999.0,  999.0,  999.0,  999.0,  999.0,  999.0,  999.0,  999.0,  999.0,  999.0,  999.0,  999.0,  999.0,   20.9,  999.0,  999.0,  999.0,  999.0,  999.0,  999.0,  999.0,  999.0,   22.7,  999.0,   23.9,  999.0,   26.0,   27.3,   27.5,   28.3,   28.0,   27.3,   26.8,   26.5,   25.8,   24.9,   23.6,   22.7,   21.8,   20.9,   19.9,   19.6,   19.7,  999.0,  999.0,  999.0,  999.0,  999.0,  999.0,  999.0
2013/06/19 06:20,  999.0,  999.0,  999.0,   14.1,   15.8,   17.3,   16.8,   16.5,   16.4,   17.2,   18.6,   19.9,   21.6,   23.2,  999.0,  999.0,  999.0,   23.2,   22.3,  999.0,   20.0,   19.7,   19.4,   19.6,   19.8,   19.6,   19.0,   19.1,   19.2,   19.9,   19.6,   19.8,  999.0,  999.0,  999.0,  999.0,   18.8,   20.2,  999.0,  999.0,  999.0,  999.0,  999.0,  999.0,  999.0,  999.0,  999.0,  999.0,  999.0,  999.0,  999.0,  999.0,  999.0,  999.0,  999.0,  999.0,  999.0,  999.0,  999.0,  999.0,  999.0,   24.7,   25.7,   25.2,   25.9,   25.0,   23.0,   22.0,   20.6,   20.3,   19.9,   19.7,  999.0,  999.0,  999.0,  999.0,  999.0,  999.0,  999.0,  999.0
2013/06/19 06:30,  999.0,  999.0,  999.0,   14.4,   16.3,   18.1,   17.9,   16.6,   16.5,   17.3,   18.2,   19.8,   20.6,   22.0,   24.6,  999.0,   26.6,   25.0,   23.3,   22.9,   21.7,   20.4,   20.0,   19.8,   19.9,   19.4,   20.0,   20.0,   20.0,   19.7,   20.1,  999.0,  999.0,  999.0,  999.0,  999.0,   18.5,   18.9,  999.0,  999.0,  999.0,  999.0,  999.0,  999.0,  999.0,  999.0,  999.0,  999.0,  999.0,  999.0,  999.0,  999.0,  999.0,  999.0,  999.0,  999.0,  999.0,  999.0,  999.0,  999.0,  999.0,  999.0,   20.6,   22.7,   22.4,   23.2,   22.9,   21.3,   19.6,   19.5,   17.9,   16.6,   17.8,   16.7,   16.4,   15.3,  999.0,   14.9,  999.0,  999.0
2013/06/19 06:40,  999.0,  999.0,  999.0,   14.5,   16.6,   18.6,   18.7,   17.7,   17.9,   19.1,   19.8,   20.2,   22.3,   23.0,   25.7,   26.8,   27.4,   26.6,   25.1,   23.7,   22.2,   21.7,   22.0,   21.1,   20.9,   21.2,   21.5,   22.5,   23.5,  999.0,   23.2,   22.7,   22.9,  999.0,  999.0,  999.0,   18.0,   18.0,  999.0,  999.0,  999.0,  999.0,  999.0,  999.0,  999.0,  999.0,  999.0,  999.0,  999.0,  999.0,  999.0,  999.0,  999.0,  999.0,  999.0,  999.0,  999.0,  999.0,  999.0,  999.0,  999.0,  999.0,  999.0,  999.0,  999.0,  999.0,  999.0,  999.0,  999.0,  999.0,  999.0,  999.0,  999.0,  999.0,  999.0,  999.0,  999.0,  999.0,  999.0,  999.0
2013/06/19 06:50,  999.0,  999.0,  999.0,   16.9,   18.1,   17.9,   17.6,   18.3,   19.1,   20.2,   21.7,   23.1,   24.5,  999.0,   26.5,   28.2,   28.6,   28.0,   26.5,   25.1,   23.7,   22.7,   22.8,   22.5,   22.7,   22.1,   22.1,   21.9,   21.7,   22.3,   22.6,   22.5,   22.3,   21.6,   21.5,   21.1,   20.8,   19.9,   21.3,   20.2,   20.6,  999.0,  999.0,  999.0,  999.0,  999.0,  999.0,  999.0,  999.0,  999.0,  999.0,  999.0,  999.0,  999.0,  999.0,  999.0,  999.0,  999.0,  999.0,  999.0,  999.0,  999.0,  999.0,  999.0,  999.0,  999.0,  999.0,  999.0,  999.0,  999.0,  999.0,  999.0,  999.0,  999.0,  999.0,  999.0,  999.0,  999.0,  999.0,  999.0
2013/06/19 07:00,  999.0,  999.0,  999.0,   16.7,   17.3,   16.1,   16.4,   16.9,   17.9,   19.4,   20.6,   22.1,   24.5,   25.6,   25.8,  999.0,   28.2,   28.6,   27.5,   26.3,   24.5,   24.1,   24.2,   23.2,   23.3,   22.4,   23.0,   21.8,   21.8,   20.7,   21.1,   21.6,   22.0,   22.3,   22.7,   20.4,  999.0,  999.0,   23.8,   22.2,  999.0,  999.0,  999.0,  999.0,  999.0,  999.0,  999.0,  999.0,  999.0,  999.0,  999.0,  999.0,  999.0,  999.0,  999.0,  999.0,  999.0,  999.0,  999.0,  999.0,  999.0,  999.0,  999.0,  999.0,  999.0,  999.0,  999.0,  999.0,  999.0,  999.0,  999.0,  999.0,  999.0,  999.0,  999.0,  999.0,  999.0,  999.0,  999.0,  999.0
2013/06/19 07:10,  999.0,  999.0,  999.0,   16.4,   17.2,   16.3,   16.7,   18.1,   19.4,   20.9,   23.0,   24.6,  999.0,   26.7,   27.2,   28.5,   28.1,   28.4,   26.9,   26.2,   25.0,   24.5,   23.9,   23.6,   23.4,   23.4,   23.8,   24.1,   25.3,   23.9,   24.3,   23.8,   23.2,   23.5,   23.3,   22.6,   22.5,   22.3,  999.0,  999.0,  999.0,  999.0,  999.0,  999.0,  999.0,  999.0,  999.0,  999.0,  999.0,  999.0,  999.0,  999.0,  999.0,  999.0,  999.0,  999.0,  999.0,  999.0,  999.0,  999.0,  999.0,  999.0,  999.0,  999.0,  999.0,  999.0,  999.0,  999.0,  999.0,  999.0,  999.0,  999.0,  999.0,  999.0,  999.0,  999.0,  999.0,  999.0,  999.0,  999.0
2013/06/19 07:20,  999.0,  999.0,  999.0,   17.6,   16.8,   17.4,   18.8,   20.4,   20.9,   22.6,  999.0,   25.5,  999.0,   28.0,   28.2,   29.0,   28.6,   27.5,   27.0,   26.8,   26.2,   25.2,   24.8,   25.1,   25.1,   25.6,   25.2,   23.6,   24.1,   24.1,   25.3,   26.3,  999.0,   23.4,   23.8,   22.2,  999.0,  999.0,   21.0,  999.0,  999.0,  999.0,   23.9,  999.0,   21.8,  999.0,  999.0,  999.0,  999.0,  999.0,  999.0,  999.0,  999.0,  999.0,  999.0,  999.0,  999.0,  999.0,  999.0,  999.0,  999.0,  999.0,  999.0,  999.0,  999.0,  999.0,  999.0,  999.0,  999.0,  999.0,  999.0,  999.0,  999.0,  999.0,  999.0,  999.0,  999.0,  999.0,  999.0,  999.0
2013/06/19 07:30,  999.0,  999.0,  999.0,   17.6,   17.1,   18.6,   19.0,   20.6,   22.2,   23.6,  999.0,  999.0,   27.1,   28.6,   29.8,   30.0,   30.9,   28.4,   28.2,   27.5,   26.5,   25.7,   25.1,   24.8,   24.7,   25.0,   25.4,   24.4,   24.8,   24.3,   24.5,   24.0,   24.6,   25.4,   24.9,   24.8,   22.4,  999.0,  999.0,  999.0,  999.0,   23.4,   24.8,  999.0,  999.0,  999.0,  999.0,  999.0,  999.0,  999.0,  999.0,  999.0,  999.0,  999.0,  999.0,  999.0,  999.0,  999.0,  999.0,  999.0,  999.0,  999.0,  999.0,  999.0,  999.0,  999.0,  999.0,  999.0,  999.0,  999.0,  999.0,  999.0,  999.0,  999.0,  999.0,  999.0,  999.0,  999.0,  999.0,  999.0
2013/06/19 07:40,  999.0,  999.0,  999.0,   15.9,   16.1,   17.5,   18.4,   19.4,  999.0,  999.0,  999.0,  999.0,   27.1,   28.3,   29.1,   29.4,   30.1,   29.8,   28.2,   26.9,   26.6,   25.6,   24.8,   24.1,   24.4,   24.3,   23.9,   24.1,   24.0,   23.1,   23.7,   24.3,   25.2,   23.7,   25.1,   23.8,   22.9,   23.2,  999.0,  999.0,  999.0,   21.9,   23.6,   26.2,  999.0,  999.0,  999.0,  999.0,  999.0,  999.0,  999.0,  999.0,  999.0,  999.0,  999.0,  999.0,  999.0,  999.0,  999.0,  999.0,  999.0,  999.0,  999.0,  999.0,  999.0,  999.0,  999.0,  999.0,  999.0,  999.0,   17.6,   20.1,   20.2,   21.4,   20.7,   18.9,   19.9,   22.2,   22.4,   22.6
2013/06/19 07:50,  999.0,  999.0,  999.0,   15.5,   15.9,   16.4,   17.5,   18.5,   19.6,   21.8,   23.4,  999.0,   26.1,   27.4,   28.4,   29.7,   30.3,   30.7,   30.8,   28.7,   28.1,   27.2,   26.7,   25.6,   25.0,   25.1,   24.9,   25.1,   25.2,  999.0,  999.0,  999.0,  999.0,  999.0,  999.0,  999.0,   24.8,   25.3,  999.0,   23.6,   24.7,   26.6,   29.2,  999.0,  999.0,  999.0,  999.0,  999.0,  999.0,  999.0,  999.0,  999.0,  999.0,  999.0,  999.0,  999.0,  999.0,  999.0,  999.0,   25.9,   24.0,   22.1,   19.9,   19.2,   19.5,   20.4,   20.0,   19.4,   19.2,   18.9,   18.9,   19.0,   19.3,   19.4,   19.5,   19.6,   19.8,   20.2,   20.2,   20.1
2013/06/19 08:00,  999.0,  999.0,  999.0,   16.0,   17.4,   17.7,   18.0,   18.6,   19.7,   20.6,   22.1,   23.6,   25.3,   27.2,   28.0,   28.9,   29.4,   30.6,   31.1,  999.0,  999.0,   28.4,  999.0,   27.1,   27.2,   26.7,   25.8,   25.7,   27.1,  999.0,  999.0,  999.0,  999.0,  999.0,  999.0,  999.0,  999.0,   24.1,   24.2,   24.0,   25.2,   26.0,   27.7,  999.0,  999.0,  999.0,  999.0,  999.0,  999.0,  999.0,  999.0,  999.0,  999.0,  999.0,  999.0,  999.0,  999.0,  999.0,  999.0,  999.0,  999.0,  999.0,  999.0,  999.0,  999.0,  999.0,   18.7,   19.4,   18.5,   18.9,   19.1,   18.7,   19.2,   19.7,   19.9,   21.0,   20.3,   20.6,   20.8,  999.0
2013/06/19 08:10,  999.0,  999.0,  999.0,   14.5,   16.1,   17.7,   18.1,   18.5,   19.4,   20.6,   21.7,   23.4,   24.8,   25.7,   27.0,   28.2,   29.1,   29.5,   29.7,   29.5,   29.0,   28.5,   27.5,   27.2,   27.4,  999.0,   25.8,  999.0,   24.9,   25.6,  999.0,  999.0,  999.0,  999.0,  999.0,  999.0,   26.0,   26.5,   23.9,   23.7,   24.9,   26.1,   27.6,   30.0,  999.0,  999.0,  999.0,  999.0,  999.0,  999.0,  999.0,   26.1,   27.0,  999.0,  999.0,  999.0,  999.0,  999.0,  999.0,  999.0,  999.0,  999.0,  999.0,  999.0,  999.0,  999.0,  999.0,  999.0,  999.0,  999.0,  999.0,  999.0,  999.0,  999.0,  999.0,  999.0,  999.0,  999.0,  999.0,  999.0
2013/06/19 08:20,  999.0,  999.0,  999.0,   13.2,   14.7,   16.7,   17.8,   18.4,   19.3,   20.6,   21.7,   23.2,   24.7,   26.1,   27.4,   28.0,   29.0,   30.1,   29.3,   29.6,   29.3,   29.0,   27.9,   28.3,   27.1,   27.3,  999.0,  999.0,   25.8,   25.9,   26.4,  999.0,  999.0,  999.0,  999.0,  999.0,   25.1,   25.1,   26.1,   26.0,   25.2,   26.8,   28.7,   30.0,  999.0,  999.0,  999.0,  999.0,  999.0,  999.0,  999.0,   25.8,   29.0,  999.0,  999.0,  999.0,  999.0,  999.0,  999.0,  999.0,  999.0,  999.0,  999.0,  999.0,  999.0,  999.0,  999.0,  999.0,  999.0,  999.0,  999.0,  999.0,  999.0,  999.0,  999.0,  999.0,  999.0,  999.0,  999.0,  999.0
2013/06/19 08:30,  999.0,  999.0,  999.0,   12.3,   14.1,   15.4,   17.1,   17.3,   17.9,   19.2,   20.8,   22.4,   24.2,   26.0,   26.7,   28.0,   28.2,   28.8,   29.4,   29.9,  999.0,  999.0,   28.3,   28.3,   27.7,  999.0,   27.0,   25.5,   25.0,   25.4,   25.6,  999.0,   26.6,  999.0,  999.0,  999.0,  999.0,  999.0,  999.0,   28.8,  999.0,   28.8,   30.0,   27.9,   27.6,  999.0,  999.0,  999.0,   22.9,   25.0,   26.6,  999.0,  999.0,  999.0,  999.0,  999.0,  999.0,  999.0,  999.0,  999.0,  999.0,  999.0,  999.0,  999.0,  999.0,  999.0,  999.0,  999.0,  999.0,  999.0,  999.0,  999.0,  999.0,  999.0,  999.0,  999.0,  999.0,  999.0,  999.0,  999.0
2013/06/19 08:40,  999.0,  999.0,  999.0,  999.0,   13.1,   15.0,   17.2,   17.9,   17.5,   19.2,   20.8,   22.2,   24.0,   25.5,   26.5,   27.2,   27.8,   28.6,   28.9,   29.6,   30.2,  999.0,  999.0,  999.0,   28.4,   28.0,   27.5,  999.0,   26.1,   25.7,   25.5,   25.7,   26.8,  999.0,  999.0,  999.0,  999.0,  999.0,  999.0,  999.0,  999.0,  999.0,   28.9,   30.2,   27.7,  999.0,  999.0,   25.0,  999.0,  999.0,  999.0,  999.0,  999.0,  999.0,  999.0,  999.0,  999.0,  999.0,  999.0,  999.0,  999.0,  999.0,  999.0,  999.0,  999.0,  999.0,  999.0,  999.0,  999.0,  999.0,  999.0,  999.0,  999.0,  999.0,  999.0,  999.0,  999.0,  999.0,  999.0,  999.0
2013/06/19 08:50,  999.0,  999.0,  999.0,  999.0,   14.0,   16.1,   17.7,   17.3,   17.5,   18.4,   19.5,   21.0,   22.6,   24.0,   25.0,   25.9,   26.8,   27.8,   28.8,   29.7,   30.0,   30.3,   30.2,   30.4,   30.2,   29.7,   27.5,   27.3,   27.0,   27.1,   26.3,   27.3,   26.8,  999.0,  999.0,  999.0,  999.0,  999.0,  999.0,   29.5,   29.0,   30.7,   29.6,   31.1,   32.0,  999.0,  999.0,  999.0,  999.0,  999.0,  999.0,  999.0,  999.0,  999.0,  999.0,  999.0,   27.7,  999.0,  999.0,  999.0,  999.0,  999.0,  999.0,  999.0,  999.0,  999.0,  999.0,  999.0,  999.0,  999.0,  999.0,  999.0,  999.0,  999.0,  999.0,  999.0,  999.0,  999.0,  999.0,  999.0
2013/06/19 09:00,  999.0,  999.0,   11.1,   12.3,   13.5,   15.6,   16.9,   17.8,   18.1,   19.6,   21.8,   23.3,   25.1,   25.1,   26.3,   27.1,   28.5,   28.7,   29.2,   29.9,   30.6,   29.9,   30.8,   30.1,   29.1,   29.1,   28.5,   28.1,   26.8,   27.2,   27.1,   26.1,   26.7,   27.1,   26.7,   27.0,   26.9,   27.9,   28.4,   28.7,   29.7,   29.5,   29.0,   30.7,   30.4,   30.5,  999.0,  999.0,  999.0,  999.0,   26.3,   25.3,   25.5,   25.7,   26.2,   26.1,   26.1,   26.1,   26.4,   26.2,   26.0,   25.5,   25.1,   24.5,   24.0,   23.1,   22.4,   21.9,   21.5,   21.2,   20.8,   20.7,   21.0,   21.1,   20.9,   20.8,   21.0,   20.9,   21.0,   21.1
2013/06/19 09:10,  999.0,  999.0,   12.3,   13.8,   14.9,   16.5,   17.4,   18.9,   20.5,   21.4,   22.3,   23.8,   25.6,   15.8,    5.9,    6.7,    7.6,   15.0,    8.1,   15.2,   14.6,   14.5,   15.2,   28.6,   28.1,   26.5,   27.9,   27.2,   27.2,   26.8,   26.8,   27.7,   26.2,   25.8,   28.0,   27.2,   28.4,   28.7,   28.2,   27.7,   28.3,   28.3,   26.6,   27.0,   29.2,   30.2,   28.8,  999.0,  999.0,  999.0,  999.0,  999.0,  999.0,  999.0,   23.6,   24.0,   24.5,   24.4,   24.4,   23.8,   24.0,   23.8,   24.1,   23.8,   23.2,   23.0,   23.0,   22.6,   22.3,   22.0,   22.2,   23.1,   23.7,   24.2,   24.8,   25.0,   25.0,   25.0,   25.0,   25.3
2013/06/19 09:20,  999.0,  999.0,   13.9,  999.0,   16.8,   17.1,   18.0,   14.3,   10.0,   14.2,   11.4,   10.0,   22.8,    4.1,    4.0,    4.7,   11.7,    7.2,   -2.9,   -0.3,   -0.3,    7.6,    7.4,   26.9,   27.5,   12.8,   23.2,   21.9,   22.0,   21.9,   22.7,   23.0,   17.8,   26.9,   23.1,   22.1,   26.7,   27.8,   28.8,   29.4,   28.9,   28.4,   27.7,   26.9,   28.3,   28.4,   29.6,   29.1,   29.2,   28.5,  999.0,   25.7,   25.7,   25.6,   26.1,   26.4,   26.1,   25.1,   24.4,   23.7,   22.9,   23.0,   23.0,   23.4,   23.0,   23.5,   23.9,   23.6,   23.8,   23.8,   24.1,   24.2,   24.6,   25.0,   25.2,   25.4,   25.0,   25.1,   25.3,   25.5
2013/06/19 09:30,  999.0,  999.0,  999.0,  999.0,   15.6,    6.0,    7.1,    6.2,    7.6,    2.6,    8.9,    8.8,   13.0,   12.3,    6.6,   10.4,   11.3,   10.3,   -2.5,    6.9,   -2.6,   -2.7,    3.8,   13.4,   19.1,    9.9,   28.7,   19.8,   19.9,   25.4,   14.9,    9.8,   14.9,    9.4,    3.6,   -4.4,   14.4,   13.3,   25.6,   28.3,   27.9,  999.0,   29.5,   29.8,   28.9,   28.9,   28.6,   27.9,   28.5,   28.3,   27.3,   25.9,   25.1,   24.6,   24.4,   24.4,   24.6,   24.9,   25.3,   25.3,   25.3,   25.2,   25.2,   25.2,   24.9,   24.6,   25.1,   25.5,   25.8,   25.9,   25.6,   25.3,   25.6,   25.5,   25.1,   25.1,   24.8,  999.0,  999.0,  999.0
2013/06/19 09:40,  999.0,  999.0,  999.0,   16.0,   15.2,   10.0,    7.1,    3.5,    0.7,    1.1,    8.7,    9.7,    6.3,   10.3,   10.5,    4.1,   11.4,    6.5,  999.0,  -13.3,    8.1,   15.4,   22.9,   23.3,   23.9,   16.1,   15.3,   15.1,   18.1,   14.7,   19.2,   18.4,   19.2,   16.6,   13.6,   12.2,    6.8,   14.8,   17.5,   27.5,   28.1,   28.6,   28.5,   28.5,   28.2,   27.8,   27.9,   28.6,  999.0,  999.0,   27.8,   28.5,   27.5,   26.7,   25.7,   25.2,   25.2,   24.9,   25.3,   25.2,   24.8,   24.7,   25.2,   25.7,   25.9,   25.9,   26.5,   27.4,   28.8,   29.1,   27.8,   27.2,   26.0,   24.9,   24.1,   24.0,   23.9,   24.8,   25.3,   25.3
2013/06/19 09:50,  999.0,   13.5,   16.0,   16.8,   18.0,   19.1,   20.2,   21.7,   22.6,   23.8,   24.3,   24.9,   25.2,   25.9,   25.8,   27.1,   27.6,   29.1,   29.5,   29.2,   29.1,   24.5,   28.6,   28.6,   28.0,   28.0,   27.3,   27.6,   27.3,   27.3,   26.8,   27.0,   27.2,   27.0,   28.3,   27.8,   26.6,   27.7,   28.0,   27.3,   27.9,   27.5,   27.4,   27.4,   27.1,   27.0,   27.6,   27.2,   28.4,  999.0,   25.7,   26.6,   28.0,   28.6,   27.8,   26.8,   26.1,   26.0,   26.1,   26.3,   26.8,   27.1,   27.0,   27.1,   27.4,   27.5,   27.4,   27.2,   26.5,   26.5,   26.8,   26.5,   26.2,   26.5,  999.0,   25.0,  999.0,  999.0,  999.0,  999.0
2013/06/19 10:00,  999.0,  999.0,   15.8,   17.2,   17.4,   18.5,    5.3,    6.2,   11.4,   10.9,   15.2,   12.2,   13.0,   13.6,  999.0,  999.0,  -13.0,  -12.1,  999.0,  999.0,  999.0,  999.0,   10.1,   28.7,   25.5,   28.9,   29.6,   24.9,   23.6,   21.9,   20.0,   14.9,   14.2,   24.0,   20.7,   29.0,   17.2,  999.0,   21.3,   23.5,   29.0,   29.1,   29.2,   28.6,   28.4,   29.5,   28.6,   28.7,   28.9,  999.0,  999.0,  999.0,   29.4,   28.6,   28.7,   28.0,   28.0,   27.7,   26.8,   26.2,   26.3,   26.3,   26.1,   26.2,   25.3,   24.2,   23.7,   23.5,   24.8,   24.2,   24.0,   23.0,   23.7,   23.5,   23.2,   24.1,   24.2,   24.5,   24.6,   25.2
2013/06/19 10:10,  999.0,  999.0,  999.0,   17.5,   17.9,   12.1,   10.0,   11.3,   21.5,    1.6,   -4.6,  -13.1,  -14.0,  -19.3,  -19.7,  -16.7,  -16.9,  -15.1,  -14.2,  -14.3,  -15.2,  -12.2,  999.0,  -10.9,  999.0,  -12.8,  -13.4,  -10.3,  -11.7,    4.4,   11.9,   -1.3,   -2.7,  999.0,   -9.4,   -9.0,   14.1,  999.0,   26.2,   23.6,   29.8,   29.6,   29.8,   29.2,   29.1,   31.2,   30.7,   31.2,  999.0,  999.0,  999.0,  999.0,  999.0,   30.4,   29.9,   29.9,   29.5,   29.3,   28.4,   27.7,   26.7,   26.3,   26.0,   26.5,   26.5,   26.6,   26.1,   25.3,   24.7,   24.2,   23.7,  999.0,  999.0,  999.0,  999.0,  999.0,  999.0,  999.0,  999.0,  999.0
2013/06/19 10:20,   14.4,   15.3,   15.9,   16.9,   18.2,   15.4,   13.0,   10.6,   11.6,   10.6,    3.3,   15.0,   21.2,   21.7,   20.2,    6.9,   15.6,   15.7,   14.3,   -1.9,   11.3,    6.9,   22.3,   20.0,   12.5,   15.1,   10.5,   12.1,   22.9,   18.3,   17.7,   18.8,   18.9,   22.2,   21.4,   23.1,   28.7,   28.0,   28.0,   27.7,   28.6,   28.0,   28.4,   28.4,   28.6,   28.1,   29.2,   30.2,  999.0,   26.6,   28.0,   28.4,   29.6,   30.0,   30.3,   29.9,   30.1,   30.1,   29.4,   28.5,   26.6,   26.0,   25.8,   26.7,  999.0,   26.8,  999.0,  999.0,  999.0,  999.0,  999.0,  999.0,  999.0,  999.0,  999.0,   23.1,   24.1,   25.2,   24.8,  999.0
2013/06/19 10:30,   15.5,   16.4,   16.9,   18.0,   19.5,   21.1,   22.6,   23.3,   23.8,   -1.1,    3.4,   -0.7,   -3.7,   -3.6,  -16.6,  -16.2,  -15.7,  -16.0,  -15.8,  -14.4,  -14.9,  -14.0,  -14.9,  -15.7,  -15.7,  -15.3,  -14.6,  -16.9,   -0.7,   -1.2,   -0.1,   -5.0,  999.0,   28.1,   26.9,   27.3,   26.8,   26.4,   26.2,   26.5,   27.6,   27.8,   28.2,   28.6,   28.3,   28.0,   28.2,   28.5,   28.9,   26.7,   28.4,   28.6,  999.0,  999.0,   31.1,   29.2,   28.8,   27.8,   28.1,   28.0,   27.4,   26.9,   26.6,   26.5,   26.3,   26.2,   26.0,   25.2,   24.5,   24.2,   23.9,   23.8,   24.1,   23.0,  999.0,   24.2,   25.1,  999.0,  999.0,  999.0
2013/06/19 10:40,   15.3,   16.2,   17.7,   18.7,   19.0,  999.0,    0.5,   -8.9,   -2.9,  -13.9,  -12.8,  -16.3,  -16.1,  -15.5,  -15.3,  -14.9,  -15.7,  -16.3,  -14.8,  -14.1,  -13.6,  -13.5,  -13.5,  -13.7,  -13.7,  -10.7,    5.8,  999.0,   26.0,   26.6,   26.6,  999.0,   25.8,   26.4,   28.1,   27.2,   27.0,   27.7,   27.7,   28.0,   28.1,   28.0,   28.2,   28.3,   28.0,   27.9,   27.9,   27.7,   27.8,   27.4,   27.7,  999.0,  999.0,  999.0,  999.0,  999.0,  999.0,  999.0,  999.0,   27.1,   27.4,   27.1,   28.1,   27.2,   26.0,   26.1,   26.0,   26.0,   26.4,   26.7,   25.6,   24.8,  999.0,  999.0,  999.0,  999.0,  999.0,  999.0,  999.0,  999.0
2013/06/19 10:50,   17.8,   16.7,   18.7,   18.9,   15.5,    5.3,    2.1,  -11.4,  -14.8,  -10.3,  -17.6,  -15.8,  -15.7,  -15.9,  -15.3,  -16.4,  -16.5,  -15.7,  -15.0,  -14.4,  -12.6,  -12.6,  -12.1,  -12.6,   -4.3,   -4.4,   -4.4,   -4.0,   -0.0,    2.9,    7.0,   -1.7,   -1.4,    2.2,   -2.6,   -2.4,   -3.0,    1.6,    0.8,    2.5,    2.3,    2.8,    7.9,   30.1,   29.1,   29.3,   29.8,   30.0,   30.1,   30.2,   29.2,   28.1,   29.8,   28.9,  999.0,  999.0,  999.0,  999.0,  999.0,  999.0,  999.0,  999.0,   24.6,   24.3,   24.9,   25.3,   25.8,   26.2,   27.0,   27.2,   27.0,   25.3,   25.5,   25.2,   26.1,  999.0,  999.0,  999.0,  999.0,  999.0
2013/06/19 11:00,  999.0,  999.0,   15.8,   16.5,  999.0,  999.0,   12.0,   14.1,   14.6,    9.9,   10.5,   11.6,   16.6,   13.0,    5.7,    6.6,   13.9,   17.3,   12.6,   12.5,   13.1,   18.0,   17.7,   17.6,   18.0,    6.7,  999.0,  999.0,   27.6,   14.3,   13.7,   13.4,    5.8,    4.6,    4.6,   12.8,   15.7,   28.0,   11.4,    3.8,   16.0,   17.4,   26.9,   26.0,   26.4,   26.5,   27.6,   27.3,   26.8,   28.6,   28.4,   29.1,   29.7,  999.0,  999.0,  999.0,  999.0,  999.0,  999.0,  999.0,  999.0,  999.0,  999.0,   25.5,  999.0,   25.8,   26.1,   27.2,   27.7,   28.0,  999.0,  999.0,  999.0,  999.0,  999.0,  999.0,  999.0,  999.0,  999.0,  999.0
2013/06/19 11:10,  999.0,  999.0,  999.0,   19.4,   20.2,   21.0,   23.4,   23.4,   24.2,   25.4,   26.2,   26.4,   26.5,   26.7,   28.4,   28.4,   29.9,   29.1,   29.8,   30.1,   30.4,   31.0,   30.2,   31.4,   30.9,   30.9,   31.0,   31.3,   30.1,   29.3,   29.9,  999.0,   29.8,  999.0,  999.0,  999.0,  999.0,   26.7,   28.0,   28.9,   28.9,   29.7,   29.6,   28.4,   29.0,   30.0,  999.0,   28.8,   30.6,  999.0,  999.0,   27.9,   28.9,   29.7,   30.2,   30.0,   29.2,   29.4,   29.9,   30.2,   29.3,   27.8,   27.0,   26.5,   26.1,   26.5,   27.2,   27.3,   27.7,   28.2,   27.9,   27.7,   27.6,   27.4,   26.9,   26.6,   26.4,   25.9,   25.4,   25.6
2013/06/19 11:20,  999.0,  999.0,   16.7,   18.4,   18.9,   20.9,   16.1,   16.3,   18.7,   20.2,   22.1,  999.0,   10.1,    4.2,   15.5,   10.9,   12.8,   13.3,   13.6,   18.0,   14.7,   18.8,   15.8,   16.2,    8.1,  999.0,  999.0,  999.0,  999.0,  999.0,  999.0,  999.0,  999.0,  999.0,  999.0,  999.0,  999.0,  999.0,  999.0,  999.0,   28.4,   28.2,   28.1,   28.5,   28.7,   28.5,   27.9,   28.1,   28.5,   29.0,   29.8,   30.0,   29.9,   29.8,   29.0,   28.4,   28.3,   28.5,   28.3,   28.1,   27.9,   27.5,   26.6,   26.2,   26.9,   27.6,   28.3,   28.6,   28.7,   28.5,   26.4,   27.5,   25.9,   25.8,  999.0,  999.0,  999.0,  999.0,  999.0,   25.7
2013/06/19 11:30,  999.0,   15.1,   17.0,   18.3,   18.9,    7.9,    8.4,    8.9,    6.7,    9.5,  999.0,  999.0,  999.0,  999.0,  -15.7,  -16.6,   -4.6,   -4.7,    2.1,    2.5,    2.6,   -4.1,   -3.7,   -3.9,    6.8,  999.0,   13.3,    5.4,   11.6,   -0.2,   10.7,   11.1,   18.1,   13.6,    6.6,  999.0,   11.1,   26.5,   26.9,   28.2,   27.7,   27.4,   28.4,   28.9,   29.2,   30.5,   31.1,   31.3,   32.2,   31.6,   31.0,   29.7,   29.2,   28.9,   28.9,   28.4,   27.9,   27.7,   27.3,   27.3,   26.9,   26.4,   26.3,   26.2,   25.9,   25.5,   24.0,   22.8,   22.7,   23.0,   23.0,   22.9,   22.6,   22.9,   22.9,   22.9,   23.1,   24.1,  999.0,   23.7
2013/06/19 11:40,  999.0,  999.0,  999.0,  999.0,   21.2,   23.3,   23.8,   24.8,   25.8,   26.5,   29.6,  999.0,  999.0,  999.0,   16.0,   20.2,   28.2,   28.7,   28.7,   28.6,   29.1,   29.1,  999.0,   29.2,   28.7,   29.3,   29.6,   29.1,   28.7,   29.1,   29.1,   29.1,   28.8,   29.2,   29.6,   29.5,   29.5,   29.7,   30.4,   28.9,   28.1,   29.4,   29.3,   30.7,   30.3,   30.6,   31.3,   30.6,   30.5,   30.9,   30.8,   30.9,   30.1,   28.7,   28.3,   28.3,   27.7,   27.0,   26.4,   26.5,   26.3,   26.3,   25.8,   26.6,  999.0,  999.0,  999.0,  999.0,  999.0,  999.0,  999.0,  999.0,  999.0,  999.0,  999.0,  999.0,  999.0,  999.0,  999.0,  999.0
2013/06/19 11:50,  999.0,  999.0,  999.0,    5.3,    3.3,  999.0,    7.1,    1.2,   18.8,    4.2,   24.2,   -0.9,   -0.1,  999.0,    6.4,    9.6,   15.4,   21.4,   20.8,   19.8,   18.7,    9.5,   12.3,  999.0,  999.0,  999.0,   24.1,  999.0,   27.0,   27.6,   27.5,   29.5,   29.3,   20.1,   29.3,   28.7,   28.1,   26.6,   20.2,   27.4,   23.5,   29.8,   28.8,   29.3,   30.1,   30.6,   33.1,   32.5,   33.4,   32.2,   32.2,   30.8,   28.7,   28.2,   27.8,   27.0,   26.2,   25.8,   26.7,   27.6,   28.2,   28.5,   29.2,  999.0,  999.0,  999.0,  999.0,  999.0,  999.0,  999.0,  999.0,  999.0,  999.0,  999.0,  999.0,  999.0,  999.0,  999.0,  999.0,  999.0
2013/06/19 12:00,  999.0,  999.0,  -22.3,  -21.2,  -20.8,  -18.9,  -17.9,  -16.6,  -15.7,  -15.0,  -14.7,  -14.4,  -14.0,  -13.9,  -13.2,  -13.1,  -12.7,  -13.9,  -15.6,  -15.3,  -16.6,  -17.2,  -17.9,  -18.0,  -18.7,  -16.6,  -18.3,  999.0,  999.0,  999.0,  999.0,  -13.4,  -14.0,   -6.2,  999.0,  -11.9,  -13.8,  -13.4,  -13.8,  -14.1,  -13.9,  -12.8,  -14.0,  999.0,  999.0,   19.3,   17.1,   20.0,   24.1,   26.4,   25.2,   20.6,   26.4,   24.7,   23.9,   27.1,   26.3,   25.8,   25.5,   25.9,   26.2,   26.6,   26.6,   26.6,   26.0,   25.6,   25.2,   25.2,  999.0,  999.0,  999.0,  999.0,  999.0,  999.0,  999.0,  999.0,  999.0,  999.0,  999.0,  999.0
2013/06/19 12:10,  -10.8,  -25.3,  999.0,  -10.0,  -14.6,  -12.9,  999.0,  -14.3,    1.7,   -8.8,  -15.0,  -14.6,  -14.1,  -13.9,  -14.0,  -14.1,  -15.1,  -15.7,  -16.4,  -15.7,  -14.7,   -6.5,   -6.5,  -14.1,   -7.4,   -4.1,   -5.2,   -3.5,   -4.8,   -5.2,  -14.4,  -16.8,  -16.1,  -16.2,   -5.8,  -13.2,  -15.1,  -17.9,  -12.6,  -11.7,   12.5,   26.2,   28.5,   29.3,   27.9,   27.4,   27.8,   29.0,   28.6,   28.6,   28.5,   28.4,   28.5,   27.9,   27.5,   27.1,   26.6,   26.1,   25.6,   25.4,   25.3,   25.1,   25.2,   24.6,   25.0,   24.2,  999.0,  999.0,  999.0,  999.0,  999.0,  999.0,  999.0,  999.0,  999.0,  999.0,  999.0,  999.0,  999.0,  999.0
2013/06/19 12:20,  999.0,  999.0,  999.0,   -0.2,   -0.9,   -3.0,  -15.3,    2.5,    2.1,   -0.7,    0.3,    4.7,  -14.2,  -13.3,  -14.9,    6.6,  -15.3,  -15.1,  -13.9,  -15.3,   -4.9,    4.7,   -3.6,   30.8,    7.1,    6.3,    6.0,   11.5,   11.4,   15.7,   15.4,   12.1,   10.3,   14.9,    7.0,   26.9,   26.2,   11.2,  999.0,   16.0,   27.9,   27.9,   28.3,   28.8,   27.3,   28.0,   28.5,   29.6,   30.0,   30.6,   30.6,   29.4,   28.9,   28.7,   27.3,   26.8,   25.8,   25.0,   24.5,   24.5,   24.6,   24.6,   24.4,   24.2,   24.4,   25.1,   25.9,   26.9,   26.5,   26.3,   27.3,  999.0,  999.0,  999.0,  999.0,  999.0,  999.0,  999.0,  999.0,  999.0
2013/06/19 12:30,  999.0,  999.0,   20.1,   21.2,    0.8,   -2.5,    3.0,   16.4,   -7.8,    9.9,    6.1,    3.2,    2.0,    2.5,    6.6,    0.8,    6.4,   12.6,    5.6,    0.1,    1.4,    6.6,   12.1,   12.2,   18.2,   17.6,   17.6,   18.2,   17.6,   17.2,   15.0,    7.8,   27.0,   14.0,   27.8,   28.4,  999.0,  999.0,  999.0,  999.0,   27.9,   27.5,   28.3,   29.7,   29.1,   29.4,   28.3,   27.9,   29.1,   29.3,   29.2,   28.7,   27.5,   27.3,   27.3,   26.8,   26.6,  999.0,  999.0,  999.0,  999.0,  999.0,  999.0,  999.0,  999.0,  999.0,  999.0,  999.0,  999.0,  999.0,  999.0,  999.0,  999.0,  999.0,  999.0,  999.0,  999.0,  999.0,  999.0,  999.0
2013/06/19 12:40,  999.0,  999.0,  999.0,  999.0,   22.1,   22.7,   24.0,   24.8,   26.0,   25.4,   26.4,   26.6,   28.5,   27.7,   24.8,  999.0,   26.6,   26.3,   28.4,   28.1,   28.1,   27.9,   28.3,   28.0,   28.4,   28.8,   28.7,   29.0,   29.4,   30.1,   29.0,  999.0,  999.0,  999.0,   30.3,  999.0,  999.0,  999.0,  999.0,  999.0,  999.0,  999.0,  999.0,  999.0,  999.0,  999.0,  999.0,  999.0,  999.0,  999.0,  999.0,  999.0,  999.0,  999.0,  999.0,  999.0,  999.0,  999.0,  999.0,  999.0,  999.0,  999.0,  999.0,  999.0,  999.0,  999.0,  999.0,  999.0,  999.0,  999.0,  999.0,  999.0,  999.0,  999.0,  999.0,  999.0,  999.0,  999.0,  999.0,  999.0
2013/06/19 12:50,  999.0,  999.0,  999.0,   20.7,   21.9,   23.3,   23.4,   13.0,    2.3,   -8.5,  999.0,  -17.6,  -13.2,  -12.4,  -13.0,  -18.3,  -17.2,   10.9,   14.2,   16.9,   10.8,   14.7,   18.1,   18.4,   24.2,   24.6,   30.3,   30.6,   29.6,   29.4,   28.5,   29.8,   28.5,   30.4,   30.1,   31.1,  999.0,  999.0,   29.2,   30.4,  999.0,   29.7,  999.0,   31.6,   31.6,   31.8,   33.4,   33.5,   32.5,   31.1,   29.5,   29.2,   28.5,   28.0,   28.0,   27.8,   27.5,   27.7,  999.0,  999.0,  999.0,  999.0,  999.0,  999.0,  999.0,   27.5,   27.8,  999.0,  999.0,  999.0,  999.0,  999.0,  999.0,  999.0,  999.0,  999.0,  999.0,  999.0,  999.0,  999.0
2013/06/19 13:00,  999.0,   15.7,   16.1,   18.1,   19.9,   19.9,   20.5,   19.7,    6.5,   -9.3,  -18.0,   -7.7,   -8.2,  -16.1,   -8.5,   -6.0,   -7.6,   -7.5,   -5.6,   -4.6,  -14.8,  -14.1,   -2.7,   -2.7,   11.7,   11.6,   13.3,   13.9,   10.1,    2.1,  999.0,  999.0,  999.0,  999.0,  999.0,  999.0,  999.0,  999.0,  999.0,   26.9,   30.8,   31.1,   33.1,   33.1,   33.0,   33.0,   31.9,   30.9,   30.0,   28.7,   28.9,   29.7,   29.7,   30.3,   30.1,   30.2,   29.8,   28.9,   29.7,   29.1,  999.0,  999.0,   28.3,  999.0,   27.9,   28.3,   27.9,   28.1,   28.4,  999.0,  999.0,  999.0,  999.0,  999.0,  999.0,  999.0,  999.0,  999.0,  999.0,  999.0
2013/06/19 13:10,  999.0,  999.0,  999.0,   -2.0,  -21.8,  -21.7,  -20.7,  -19.7,  -19.3,  -18.5,  -17.7,  999.0,  -18.0,  -17.7,  -18.3,  -17.7,  -16.0,  -14.8,  -15.1,  -15.1,  -16.0,  -15.9,  -16.1,  -16.0,  -15.5,  -15.3,  -14.7,  -13.5,  -13.1,  -13.9,  -12.9,  -13.0,  -13.8,  -14.5,  -16.1,  -16.7,  -16.2,  -15.7,  -16.0,  999.0,  999.0,  999.0,  999.0,   30.4,   30.8,   30.7,   30.5,   30.1,   29.6,   28.4,   28.3,   29.1,   29.8,   29.8,   29.7,   30.3,   31.3,   31.8,   31.7,   31.7,   31.8,   32.0,   32.0,   32.6,  999.0,   31.3,   31.2,   31.4,  999.0,  999.0,  999.0,  999.0,  999.0,   31.4,  999.0,  999.0,  999.0,  999.0,  999.0,  999.0
2013/06/19 13:20,  999.0,  999.0,  999.0,  -23.0,  -22.8,  -21.8,  -20.9,  -20.6,  -19.1,  -18.3,  -19.2,  -19.7,  -19.6,  -19.6,  -18.8,  -19.0,  -18.9,  -17.8,  -17.4,  -16.6,  -16.2,  -16.9,  -16.4,  -17.2,  -17.1,  -17.4,  -17.2,  -17.8,  -17.2,  -16.4,  -16.7,  -15.5,  -16.0,  -15.1,  -16.1,  -15.3,  -15.1,  -13.4,  -12.7,  999.0,  999.0,  999.0,  999.0,   30.8,   30.5,   30.6,   30.8,   30.8,   30.4,   30.4,   30.3,   30.2,   30.4,   30.7,   31.1,   31.7,   32.0,   32.0,   32.1,   32.2,   32.3,   32.1,   32.1,   32.1,   31.9,   31.9,   31.5,   31.4,   31.2,   31.0,   31.7,   32.0,  999.0,  999.0,  999.0,  999.0,  999.0,  999.0,  999.0,  999.0
2013/06/19 13:30,   15.0,  999.0,  999.0,  999.0,  -23.1,  -22.6,  -21.6,  -20.4,  -18.8,  -17.7,  -17.2,  -17.6,  -19.3,  -19.3,  -19.8,  -19.2,  -19.3,  -18.9,  -17.6,  -16.9,  -16.5,  -15.0,  -16.1,  -17.2,  -18.6,  -18.6,  -18.6,    3.6,  -17.8,  -17.6,  -18.5,    3.9,  -18.1,  -17.8,  -16.7,  -16.1,  -15.2,  -14.7,  -15.4,  -15.2,  999.0,  999.0,  999.0,  999.0,   31.4,   31.0,   31.0,   31.1,   31.1,   31.3,   31.0,   30.7,   30.6,   30.7,   30.7,   30.8,   31.0,   30.9,   30.7,   30.7,   31.1,   31.1,   31.5,   31.3,   31.0,   30.9,   31.3,   31.4,   31.3,   31.8,   32.2,  999.0,   31.6,  999.0,  999.0,  999.0,  999.0,  999.0,  999.0,  999.0
2013/06/19 13:40,   16.7,  999.0,  -23.9,  -23.5,  -22.0,  -21.4,  -19.9,  -18.0,  -16.5,  -16.3,  -16.1,  -16.2,  -16.2,  -16.7,  -16.9,  -17.2,  -16.8,  -16.5,  -15.5,  -14.8,  -14.4,  -14.3,  -15.1,  -15.9,  -16.5,  -17.4,  -16.9,  -17.9,  -18.0,  -18.3,  -18.6,  -18.2,  -18.3,  -18.9,  -17.5,  -16.7,  -16.3,  -15.2,  -15.0,  -14.8,  999.0,  999.0,  999.0,  999.0,  999.0,   29.5,   30.3,   31.2,   31.3,   31.6,   32.0,   31.8,   31.9,   31.9,   31.9,   31.8,   31.4,   31.3,   31.0,   30.9,   30.7,   30.4,   30.2,   29.8,   30.0,  999.0,  999.0,  999.0,  999.0,  999.0,  999.0,  999.0,  999.0,  999.0,  999.0,  999.0,  999.0,  999.0,  999.0,  999.0
2013/06/19 13:50,  -24.5,  -24.8,  -23.0,  -21.9,  -19.4,  -19.1,  -17.1,  -15.9,  -16.4,  -16.2,  -17.0,  -17.7,  -18.0,  -18.6,  -18.9,  -18.8,  -19.0,  -18.7,  -18.4,  -18.1,  -17.7,  -16.8,  -16.7,  -16.2,  -16.5,  -15.9,  -15.3,  -16.7,  -16.1,  -14.9,  -15.1,  -15.3,  -14.2,  -14.6,  -14.5,  -12.9,  -13.3,  -13.0,  -14.6,  -13.6,  -13.4,  999.0,  999.0,   29.2,   28.6,   27.8,   27.9,   29.1,   29.2,   29.4,   30.0,   30.0,   30.1,   30.0,   30.2,   30.9,   30.3,   29.8,   29.7,   29.4,   29.3,   28.9,   28.7,   28.7,   29.4,   30.0,   30.5,   30.5,   30.5,   30.5,   30.7,   30.6,   31.0,  999.0,  999.0,  999.0,  999.0,  999.0,  999.0,  999.0
2013/06/19 14:00,   17.7,  999.0,  999.0,  -20.4,  -20.6,  -20.0,  -18.2,  -16.9,  -17.0,  -17.0,  -17.6,  -18.7,  -20.2,  -20.7,  -20.4,  -20.4,  -20.1,  -19.6,  -19.0,  -17.3,  -16.0,  -14.5,  -13.3,  -12.6,  -12.1,  -12.2,  -12.9,  -13.1,  -14.5,  -14.6,  -14.1,  -14.9,  -15.4,  -15.2,  -15.4,  -16.0,  -15.0,  -15.7,  -15.8,  999.0,  999.0,  999.0,   29.9,   29.9,   29.9,   29.4,   28.7,   28.5,   28.3,   28.2,   28.4,   28.8,   28.9,   28.6,   28.3,   28.3,   28.5,   29.0,   29.3,   29.5,   29.3,   29.3,   29.4,   29.1,   29.1,   29.2,   29.4,   29.6,   29.6,   29.7,   29.8,   29.6,   29.6,   29.6,  999.0,  999.0,  999.0,  999.0,  999.0,  999.0
2013/06/19 14:10,   15.7,   18.0,   16.6,  999.0,  999.0,  999.0,  -22.3,  -21.9,  -20.9,  -20.5,  -20.6,  -21.2,  -21.5,  -21.7,  -21.8,  -21.3,  -20.9,  -19.5,  -18.2,  -16.9,  -16.0,  -15.2,  -13.9,  -13.5,  -13.1,  -12.4,  -12.1,  -13.3,  -13.3,  -13.9,  -13.8,  999.0,  -16.1,  -16.8,  -16.2,  -17.5,  -16.0,  -16.7,  999.0,  999.0,  999.0,  999.0,  999.0,   29.4,   28.1,   28.1,   28.5,   28.9,   29.5,   29.7,   29.6,   29.5,   29.6,   29.6,   29.9,   29.7,   29.7,   29.7,   29.2,   29.0,   28.9,   28.8,   28.6,   28.5,   28.7,   28.6,   28.7,   28.9,   28.8,   28.6,   28.1,   28.1,   28.3,   28.3,   28.1,   28.5,   28.6,   28.7,   28.9,   28.4
2013/06/19 14:20,   17.2,   18.2,   19.3,   19.9,   20.0,   19.6,   11.3,   11.6,   15.6,   14.9,   15.0,   19.6,   18.9,   20.2,   20.7,   21.5,  999.0,  999.0,  999.0,  999.0,  999.0,  999.0,  -13.8,  -13.0,  -12.2,  -12.6,  -12.6,  -13.0,  -13.4,  -13.7,  -13.9,  -14.2,  -13.4,  -12.9,  -14.2,  -15.0,  -14.7,  -15.7,  999.0,  999.0,  999.0,  999.0,   29.8,   29.1,   28.7,   29.1,   29.4,   30.1,   30.7,   31.2,   31.0,   31.2,   31.1,   30.7,   30.1,   30.2,   29.7,   29.3,   28.7,   28.5,   28.2,   28.1,   28.1,   28.3,   28.5,   28.6,   28.7,   29.1,   29.3,   28.8,   28.3,   28.0,   27.8,   28.6,   29.3,  999.0,   29.0,   27.7,  999.0,  999.0
2013/06/19 14:30,   -3.0,    4.6,    5.5,    5.5,    5.0,    5.0,   15.3,   19.3,   20.4,   20.2,   20.6,   21.3,   22.0,   22.4,  999.0,    2.8,   -3.2,  -16.7,  -16.2,  -16.0,  -15.0,  -13.4,  -12.3,  -11.9,  -11.9,  -11.8,  -11.8,  -12.6,  -13.0,  -13.5,  -13.9,  -16.0,  -15.5,  -14.5,  -14.1,  -14.9,  -14.5,  -14.0,  999.0,  999.0,  999.0,   28.9,   30.2,   30.2,   30.3,   29.9,   29.9,   30.2,   30.3,   30.5,   30.6,   30.0,   29.6,   29.9,   29.9,   30.3,   30.6,   30.5,   30.3,   29.8,   29.3,   29.3,   29.2,   28.9,   28.4,   28.2,   28.4,   28.5,   28.8,   29.1,   28.9,   28.5,   27.9,   27.4,   27.6,   27.7,   28.8,  999.0,   27.4,   27.2
2013/06/19 14:40,  -25.3,  -24.9,  -22.8,  -22.8,  -23.0,  -23.4,  -23.3,  -23.3,  -23.2,  -23.0,  -22.7,  -23.0,  -22.7,  -22.5,  -22.3,  -21.9,  -20.5,  -20.4,  -19.2,  -18.3,  -17.2,  -16.0,  -14.7,  -13.5,  -13.4,  -12.7,  -13.5,  -14.1,  -15.0,  -15.7,  -15.2,  -15.1,  -14.1,  -14.1,  -14.6,  -14.1,  -14.5,  -13.1,  -13.6,  999.0,  999.0,  999.0,  999.0,   32.2,   30.7,   30.7,   31.0,   31.7,   31.9,   32.1,   32.1,   32.1,   32.1,   32.1,   32.1,   32.0,   31.8,   31.4,   30.9,   30.3,   30.3,   30.3,   30.4,   30.3,   30.2,   29.9,   29.6,   29.5,   29.4,   29.2,   29.1,   29.3,   28.8,   28.7,   28.7,   28.2,   27.9,   27.8,   27.5,   27.5
2013/06/19 14:50,  -25.5,  -25.0,  -24.1,  -24.2,  -24.3,  -23.9,  -23.7,  -23.2,  -23.0,  -23.4,  -23.9,  -24.1,  -23.8,  -22.7,  -21.4,  -20.3,  -19.0,  -17.8,  -17.2,  -15.7,  -13.9,  -13.6,  -13.1,  -13.0,  -14.0,  -14.5,  -14.5,  -15.1,  -15.7,  -15.3,  -15.0,  -14.8,  -14.8,  -14.3,  -13.5,  -13.4,  -12.7,  -12.8,  -12.5,  999.0,  999.0,  999.0,   33.1,   34.4,   33.6,   33.4,   33.3,   32.8,   32.7,   32.7,   32.7,   32.8,   32.7,   32.5,   32.6,   32.5,   32.4,   32.5,   32.5,   32.7,   32.7,   32.1,   32.0,   31.8,   31.5,   31.6,   31.6,   31.8,   31.7,   31.2,   30.8,   30.6,   30.2,   29.9,   29.8,   29.6,   29.3,   29.1,   29.2,   29.1
2013/06/19 15:00,   16.2,   16.7,   16.7,   16.6,  999.0,  999.0,  999.0,  999.0,  999.0,  -19.5,  -18.6,  -16.8,  -18.8,  -22.1,  -20.7,  -20.0,  -19.2,  -17.6,  -16.5,  -15.1,  -14.0,  -12.8,  -13.3,  -14.2,  -14.8,  -14.7,  -15.2,  -15.2,  -14.9,  -14.7,  -14.2,  -14.7,  -14.8,  -14.7,  -14.5,  -15.0,  -14.2,  -13.0,  -13.4,  -12.9,  999.0,  999.0,  999.0,  999.0,   31.2,   31.6,   31.9,   32.2,   32.6,   33.0,   33.2,   33.3,   33.1,   33.1,   33.1,   33.1,   33.3,   33.5,   33.3,   33.9,   34.3,   33.7,   33.2,   32.6,   32.1,   31.6,   31.0,   30.8,   31.4,   31.6,   31.5,   30.9,   30.8,   30.9,   30.8,   30.8,   30.7,   29.9,   29.5,   29.2
2013/06/19 15:10,   14.7,   14.9,   14.5,   14.6,   15.6,   16.3,   17.4,   18.3,   18.1,   13.8,   12.7,  999.0,  999.0,  999.0,  999.0,  -19.3,  -18.6,  -17.0,  -15.6,  -13.5,  -12.9,  -13.5,  -14.7,  -15.1,  -15.1,  -14.2,  -14.4,  -14.4,  -14.3,  -14.3,  -14.2,  -14.7,  -14.8,  -14.6,  -14.6,  -14.3,  -14.0,  -14.0,  -14.5,  999.0,  999.0,  999.0,   31.4,   32.2,   31.8,   32.1,   32.1,   32.0,   31.9,   32.1,   32.5,   32.6,   32.4,   32.5,   32.5,   32.7,   32.8,   32.9,   33.2,   34.0,   33.7,   33.4,   32.9,   32.7,   32.7,   32.4,   32.1,   31.9,   31.7,   31.4,   31.5,   31.3,   31.3,   31.3,   31.3,   31.0,   31.0,   31.0,   30.7,   30.4
2013/06/19 15:20,   12.1,   11.8,   12.5,   13.8,   15.0,   16.1,   16.4,   17.3,   16.6,   16.9,   17.2,  999.0,  999.0,  999.0,  -20.5,  -18.5,  -17.4,  -16.2,  -15.1,  -14.1,  -12.9,  -13.2,  -14.4,  -15.0,  -15.5,  -14.4,  -14.3,  -13.8,  -14.0,  -14.1,  -13.4,  -13.4,  -13.6,  -13.4,  -13.1,  -12.9,  -13.1,  -13.4,  -13.7,  -13.5,  999.0,  999.0,  999.0,   32.1,   31.2,   31.1,   31.2,   31.2,   31.2,   31.4,   31.3,   31.0,   30.8,   30.7,   30.6,   30.7,   30.7,   30.9,   31.0,   30.9,   31.0,   31.1,   31.2,   31.1,   30.9,   30.6,   30.5,   30.4,   30.4,   30.5,   30.3,   30.4,   30.4,   30.3,   30.1,   30.1,   29.9,   29.7,   29.6,   29.6
2013/06/19 15:30,   10.7,   11.5,   11.8,   12.7,   13.6,   14.4,   15.8,   16.3,   16.6,    7.8,  999.0,  999.0,  -22.9,  -21.1,  -20.8,  -19.7,  -19.1,  -17.3,  -16.4,  -15.4,  -14.5,  -14.0,  -14.4,  -14.8,  -15.1,  -15.0,  -15.3,  -14.9,  -14.4,  -13.9,  -14.1,  -13.8,  -13.6,  -13.2,  -12.6,  -12.2,  -13.3,  -12.6,  -13.5,  999.0,  999.0,  999.0,  999.0,   32.0,   30.9,   30.9,   31.2,   31.1,   30.9,   30.8,   30.8,   30.5,   30.2,   30.4,   30.5,   30.6,   30.6,   30.4,   30.3,   30.4,   30.5,   30.4,   30.5,   30.3,   30.3,   30.3,   30.4,   30.4,   30.5,   30.3,   30.3,   30.3,   30.0,   29.3,   29.1,   28.9,   29.0,   29.0,   29.0,   28.9
2013/06/19 15:40,   10.2,   10.9,   12.0,   12.4,   13.6,   14.5,   14.4,    5.1,    5.5,    5.6,    6.0,  -12.3,   -7.0,  -17.5,  -10.9,  -19.8,  -18.4,  -18.0,  -17.2,  -16.0,  -15.6,  -14.7,  -14.0,  -14.1,  -15.0,  -15.0,  -15.3,  -15.4,  -15.3,  -15.1,  -14.4,  -14.9,  -14.6,  -15.2,  -14.7,  -15.4,  -15.2,  -15.9,  -15.0,  -14.4,  999.0,  999.0,  999.0,  999.0,   29.2,   29.5,   29.6,   29.9,   29.9,   29.4,   30.3,   30.0,   30.2,   30.2,   30.8,   31.0,   31.2,   31.5,   31.7,   31.6,   31.5,   31.7,   31.7,   31.7,   31.7,   31.7,   31.5,   31.0,   30.9,   30.9,   31.1,   30.8,   30.5,   30.1,   29.7,   29.2,   28.7,   28.1,   28.0,   27.9
2013/06/19 15:50,   10.6,   11.6,   12.4,   11.2,   12.0,   12.0,   13.6,    8.9,    9.2,   10.0,    6.4,    6.5,    8.1,   11.8,    8.3,  999.0,  999.0,  999.0,  999.0,  -17.7,  -16.8,  -15.9,  -14.5,  -12.8,  -15.0,  -15.4,  -14.8,  -15.7,  -16.5,  -16.1,  -15.5,  -16.0,  -16.8,  -15.2,  -16.6,  -16.0,  -16.2,  -14.9,  -15.8,  999.0,  999.0,  999.0,   29.7,   30.7,   30.6,   30.9,   31.2,   31.0,   30.9,   30.7,   30.4,   30.1,   30.4,   30.6,   30.9,   31.3,   31.6,   31.6,   31.9,   32.2,   32.9,   32.8,   33.0,   33.4,   33.5,   33.7,   33.6,   33.7,   33.3,   33.4,   33.4,   33.5,   33.1,   32.4,   31.9,   31.4,   30.4,   29.5,   28.6,   28.3
2013/06/19 16:00,    9.1,    9.3,   10.1,   10.0,   11.6,   13.4,  999.0,  999.0,   -6.8,  -11.7,   -6.1,  -10.8,  -22.1,  -21.6,  -20.3,  -24.0,  -22.5,  -22.7,  -21.0,  -20.0,  -19.5,  -17.8,  -16.9,  -16.3,  -16.6,  -16.3,  -17.7,  -16.9,  -16.0,  -15.3,  -15.0,  -14.7,  -14.7,  -14.3,  -15.9,  -16.0,  -16.4,  -15.6,  -15.6,  999.0,  999.0,  999.0,   30.2,   29.6,   29.2,   29.6,   30.2,   30.8,   31.6,   32.1,   32.5,   32.8,   33.0,   33.2,   34.0,   33.8,   33.9,   33.8,   33.8,   33.8,   33.7,   33.6,   34.1,  999.0,  999.0,  999.0,  999.0,  999.0,  999.0,  999.0,  999.0,  999.0,   30.5,   30.2,   29.7,   28.8,   28.5,   28.2,   28.0,   28.0
2013/06/19 16:10,    8.3,    9.1,   10.2,   10.7,   11.5,    0.4,    5.2,  -19.3,  -16.8,  -12.7,   -8.2,  -12.3,  -19.7,  -14.4,  -14.2,  -13.0,   -8.5,   -7.8,  -18.3,  -18.1,  -21.9,  -21.1,  -20.6,  -20.6,  -20.0,  -20.3,  -20.0,  -18.2,  -17.8,  -17.4,  -16.7,  -16.6,  -16.9,  -18.0,  -16.6,  -16.2,  -16.1,  -14.8,  -14.2,  -13.6,  -13.0,  999.0,  999.0,   32.2,  999.0,   32.0,   31.3,   32.0,   32.2,   32.2,   31.9,   32.1,   32.5,   32.8,   33.0,   33.7,   33.9,   34.4,   34.5,   34.5,   34.7,   35.4,   35.8,  999.0,  999.0,  999.0,  999.0,  999.0,  999.0,  999.0,  999.0,  999.0,  999.0,  999.0,  999.0,   28.3,   27.0,   26.7,   26.8,   27.1
2013/06/19 16:20,   10.7,   10.6,  999.0,  999.0,  -30.0,  -28.2,  -27.9,  -27.3,  -28.8,  -24.2,  -18.7,  -23.7,  -29.1,  -28.5,  -28.1,  -27.5,  -26.4,  -25.9,  -24.5,  -24.0,  -23.1,  -22.6,  -22.5,  -21.8,  -21.1,  -21.0,  -20.6,  -19.2,  -19.6,  -19.6,  -16.4,  -15.6,  -16.9,  -15.0,  -15.6,  -15.5,  999.0,  -15.4,  -14.8,  999.0,  999.0,  999.0,   31.1,   31.3,   31.1,   31.3,   31.5,   31.3,   31.1,   31.2,   31.2,   31.2,   31.4,   31.6,   31.7,   31.8,   31.9,   32.0,   32.2,   32.4,   32.7,   32.7,   32.8,   32.8,   32.3,   31.9,   31.9,   31.6,   31.3,   31.5,   31.4,   31.5,   31.3,   31.2,   31.2,   31.8,  999.0,  999.0,  999.0,  999.0
2013/06/19 16:30,   12.6,   13.7,   15.4,  999.0,  999.0,  -25.9,  999.0,  999.0,    1.0,   -1.9,    2.1,    2.3,    4.5,  999.0,  999.0,  -25.0,  -23.1,  -22.3,  -21.0,  -19.8,  -19.2,  -18.6,  -17.4,  -16.7,  -16.1,  -15.3,  -14.2,  -13.6,  -13.9,  -13.6,  -13.3,  -13.8,  -13.9,  -14.0,  -14.5,  -14.3,  -14.9,  -14.1,  -16.2,  -14.6,  999.0,  999.0,  999.0,   31.6,   31.3,   31.1,   30.9,   30.7,   30.9,   31.1,   31.3,   31.3,   31.6,   31.6,   31.8,   31.9,   32.1,   31.8,   31.9,   31.8,   31.9,   32.0,   31.9,   32.0,   31.8,   31.2,   31.2,   30.9,   30.6,   30.1,   29.7,   30.0,   30.1,   30.3,   29.8,  999.0,  999.0,  999.0,  999.0,  999.0
2013/06/19 16:40,  999.0,   13.4,  -27.7,  -27.3,  -26.2,  -26.1,  -26.3,  -25.6,  -26.5,  -19.7,  -15.3,  -20.1,  -16.5,  -27.0,  -26.3,  -25.3,  -24.1,  -23.3,  -22.3,  -21.1,  -20.8,  -19.9,  -20.1,  -18.9,  -19.0,  -18.0,  -18.0,  -17.8,  -18.3,  -18.4,  -18.4,  -17.8,  -18.0,  -17.0,  -17.5,  -18.1,  -17.8,  -17.2,  -17.6,  -16.4,  999.0,  999.0,  999.0,  999.0,   31.0,   30.4,   30.1,   30.5,   29.8,   29.4,   29.3,   29.5,   29.5,   29.5,   30.2,   30.5,   30.7,   31.1,   31.3,   31.4,   31.6,   31.4,   30.9,   30.6,   30.8,   30.6,   30.5,   30.5,   30.5,   30.3,   30.1,   29.8,   29.4,   29.4,   29.6,   29.6,   29.5,   29.0,   29.2,   29.2
2013/06/19 16:50,  999.0,  999.0,  -17.2,  -27.3,  -25.8,  -25.0,  -25.0,  -25.5,  -26.7,  -26.3,  -20.5,  -19.2,  -20.8,  -24.7,  -25.0,  -24.8,  -24.4,  -24.5,  -24.1,  -23.6,  -22.7,  -22.4,  -22.2,  -21.7,  -21.5,  -20.6,  -21.6,  -21.4,  -20.7,  -19.9,  -19.3,  -18.6,  -18.7,  -19.0,  -17.4,  -18.5,  -16.9,  -19.0,  -18.7,  999.0,  999.0,  999.0,  999.0,  999.0,  999.0,  999.0,   28.3,   28.8,   29.0,   29.2,   29.4,   29.3,   29.7,   29.9,   29.9,   29.9,   30.1,   30.4,   30.4,   30.6,   30.8,   30.9,   30.5,   30.3,   30.2,   30.4,   30.8,   30.9,   30.5,   30.3,   30.1,   30.1,   29.6,   28.9,   28.8,   28.8,   28.7,  999.0,   28.2,  999.0
2013/06/19 17:00,   13.3,   14.1,  999.0,  999.0,  -27.0,  -26.0,  -25.9,  -26.8,  -27.1,    5.9,  -13.9,  -17.5,  -20.8,  -23.9,  -23.8,  -23.3,  -22.1,  -21.7,  -20.4,  -19.5,  -18.6,  -16.8,  -16.0,  -16.2,  -16.0,  -16.4,  -16.4,  -16.5,  -17.0,  -16.8,  -17.3,  -17.4,  -17.3,  -17.3,  -16.9,  -17.4,  -16.6,  -17.0,  -16.6,  999.0,  999.0,  999.0,   27.0,   27.6,   27.0,   27.1,   27.3,   27.3,   27.6,   27.2,   27.5,   28.0,   28.4,   28.6,   28.6,   28.8,   29.1,   29.2,   29.5,   29.6,   30.1,   30.6,   30.8,   30.9,   31.0,   31.2,   31.0,   30.3,   30.2,   30.7,   30.5,   29.4,   28.9,   28.3,   28.3,   28.9,  999.0,  999.0,  999.0,  999.0
2013/06/19 17:10,   11.2,    7.5,  999.0,  999.0,  999.0,  999.0,  999.0,  999.0,  999.0,    4.0,    4.8,    5.3,   10.8,   -4.2,  999.0,  999.0,  999.0,  999.0,  999.0,  999.0,  999.0,  999.0,  999.0,  999.0,  999.0,  999.0,  999.0,  999.0,  999.0,  -18.0,  999.0,  -17.0,  -17.8,  -17.5,  -17.2,  -17.3,  -17.4,  -17.4,  -16.1,  999.0,  999.0,  999.0,  999.0,   29.0,   29.5,   29.5,   29.6,   29.4,   29.4,   29.3,   29.6,   29.6,   30.1,   30.5,   30.9,   31.1,   31.0,   31.2,   31.4,   31.2,   31.0,   31.1,   30.8,   30.7,   30.4,   30.0,   29.6,   28.7,   28.2,   28.2,   28.4,   28.6,   28.6,   28.7,   28.9,   29.2,   29.3,   29.1,   28.7,   28.5
2013/06/19 17:20,   12.8,   -7.8,  999.0,  -27.0,  -17.7,  -26.2,  -15.4,   -4.9,   -5.9,    5.0,    6.7,    7.1,   16.3,   16.6,   17.1,   15.7,   15.9,   -7.6,   -7.4,  -22.8,  -21.9,  -21.8,  -20.0,  -20.1,  -20.1,  -19.4,  -18.7,  -17.9,  -18.1,  -17.9,  -17.6,  -17.7,  -17.7,  -18.3,  -17.2,  -16.7,  -16.5,  -14.9,  -15.6,  -15.2,  999.0,  999.0,  999.0,   32.0,   32.0,   31.4,   31.6,   31.5,   31.5,   31.3,   31.5,   31.4,   31.6,   31.5,   31.4,   31.4,   31.2,   30.9,   30.6,   30.4,   30.1,   30.2,   30.6,   30.6,   30.6,   30.4,   29.9,   29.6,   29.0,   28.3,   28.5,   27.7,   28.5,   28.3,   28.5,   28.0,   27.6,   28.1,   27.4,  999.0
2013/06/19 17:30,    1.0,   -1.0,  -28.5,  -27.2,  -26.0,  -24.3,  -24.0,  -22.4,  -22.2,  -23.8,  -24.8,  -26.1,  -27.7,  -27.4,  -28.2,  -27.3,  -27.8,  -27.4,  -27.8,  -27.0,  -27.1,  -25.0,  -26.0,  -25.8,    2.6,    2.1,    6.7,    8.0,    3.7,  -10.4,   -8.6,   -1.3,   -1.4,   -7.7,  -14.9,  -10.7,  -21.2,  -20.4,  -19.4,  -13.8,    9.6,   24.1,   25.3,   27.0,   27.9,   27.0,   27.3,   27.4,   27.9,   29.5,   29.6,   30.1,   31.0,   31.0,   31.0,   31.3,   31.2,   31.0,   30.7,   30.6,   30.5,   30.4,   30.6,   30.6,   30.7,   30.9,   31.4,   31.2,   31.0,   30.6,   29.8,   29.1,   28.2,   28.1,   27.6,   28.0,  999.0,  999.0,  999.0,  999.0
2013/06/19 17:40,   15.4,  999.0,  999.0,  -24.5,  -24.0,  -22.4,  -22.0,  -21.8,  -20.7,  -22.4,  -22.2,  -22.7,  -22.2,  -23.1,  -25.1,  -23.5,  -23.5,  -24.1,  -24.7,  -24.3,  -24.5,  -23.5,  -24.6,  -23.9,  -22.8,  -21.2,  -20.6,  -23.0,  -20.7,  -19.8,  -20.3,  -19.3,  999.0,  -19.0,  -19.4,  -18.4,  999.0,  999.0,  -17.2,  999.0,  999.0,   21.6,   21.7,   24.4,   26.9,   26.8,   24.4,   26.1,   26.4,   26.6,   27.1,   27.3,   27.3,   27.6,   27.7,   28.0,   28.5,   28.5,   28.8,   29.2,   28.6,   28.7,   29.1,   29.4,   29.8,   30.0,   30.4,   30.6,   30.6,   30.5,   29.9,   29.8,   29.6,   29.0,   28.6,   27.5,   27.1,   27.7,   28.6,   28.9
2013/06/19 17:50,   14.7,   15.6,  999.0,   -3.8,  999.0,  999.0,  999.0,  999.0,  999.0,  -23.5,  -23.1,  -22.8,  -21.8,  -21.4,  -20.1,  -18.9,  -18.6,  -18.1,  -17.3,  -16.6,  -16.5,  -16.4,  -17.0,  -17.6,  -17.9,  -17.8,  -18.3,  -18.7,  -18.7,  -18.6,  -18.6,  -18.7,  -18.5,  -18.3,  -18.4,  -17.9,  -17.8,  999.0,  -16.4,  999.0,  999.0,  999.0,  999.0,  999.0,   29.0,   29.1,   29.3,   29.3,   29.5,   29.4,   29.6,   29.5,   29.3,   29.6,   29.3,   29.3,   29.7,   29.5,   29.5,   29.6,   29.6,   29.8,   30.2,   30.7,   31.5,   32.3,   31.9,   31.1,   30.6,   29.6,   28.4,   27.4,   26.7,   26.5,   26.5,   26.9,   27.5,   28.3,   28.8,   28.4
2013/06/19 18:00,   10.8,   11.7,   12.6,   13.6,   14.0,   15.9,   17.2,   17.1,   16.4,   12.2,   12.3,    8.3,    9.0,    9.8,   17.7,   17.8,   -0.8,   -1.3,  -18.2,  -17.1,  -16.7,  -16.3,  -14.9,  -16.5,  -16.8,  -16.1,  -16.1,  -15.8,  -15.9,  -15.7,  -15.1,  -14.9,  -14.4,  -14.8,  -13.6,  -13.9,  -14.5,  -13.9,  -13.4,  999.0,  999.0,  999.0,  999.0,   31.6,   30.3,   30.1,   30.0,   29.6,   29.7,   29.7,   30.0,   31.3,   30.6,   29.6,   29.8,   29.9,   30.5,   30.8,   30.9,   31.3,   31.4,   31.2,   31.1,   31.2,   31.1,   31.2,   31.0,   30.9,   30.7,   30.5,   30.2,   30.2,   29.6,   29.2,   29.3,   28.9,   28.4,   27.9,   28.5,   28.7
2013/06/19 18:10,    8.4,    9.9,   12.2,   13.4,   14.2,   14.9,   15.0,   15.2,   15.0,   15.4,   15.1,   15.5,   16.0,   16.5,   17.0,  999.0,  999.0,  999.0,  999.0,  -20.2,  -18.8,  -19.3,  -18.3,  -16.5,  -15.5,  -15.7,  -15.7,  -15.6,  -15.1,  -15.2,  -15.4,  -14.6,  -14.2,  -14.1,  -14.0,  -13.7,  -14.9,  -14.9,  -15.1,  999.0,  999.0,  999.0,  999.0,   31.1,   31.4,   31.2,   31.6,   31.8,   32.2,   32.6,   32.7,   32.6,   32.2,   32.0,   31.9,   32.0,   31.7,   31.3,   31.4,   31.0,   30.5,   29.6,   29.3,   28.9,   28.3,   28.6,   28.7,   29.3,   29.8,   30.1,   29.9,   30.1,   29.9,   29.4,   29.2,   29.0,   28.9,  999.0,  999.0,  999.0
2013/06/19 18:20,    9.0,    9.7,   11.2,   11.8,   12.4,   13.1,   13.2,   13.7,   14.4,   15.0,  999.0,  999.0,  999.0,  999.0,  999.0,  -20.3,  999.0,  -20.1,  -18.5,  -17.7,  -18.0,  -17.0,  -15.4,  -14.7,  -13.7,  -13.1,  -13.7,  -13.9,  -14.5,  -13.6,  -12.9,  -13.1,  -12.5,  -12.8,  -12.9,  -12.4,  -11.8,  -12.4,  -13.0,  999.0,  999.0,  999.0,  999.0,   32.2,   32.2,   32.2,   32.4,   32.8,   33.4,   33.5,   33.5,   33.1,   32.9,   32.6,   32.5,   32.7,   32.6,   32.1,   32.3,   32.0,   30.9,   30.2,   29.8,   29.4,   29.1,   29.1,   29.1,   29.5,   30.1,   30.3,   30.3,   30.6,   30.7,   30.6,   30.6,   30.1,   29.9,   29.8,   29.5,   29.2
2013/06/19 18:30,    7.9,    8.7,   10.7,   11.6,   11.8,   12.3,   12.1,   12.7,   14.7,   15.2,  999.0,  999.0,  999.0,  999.0,  -19.8,  -18.4,  -18.2,  -17.7,  -17.5,  -16.4,  -15.7,  -14.7,  -14.0,  -13.6,  -13.5,  -12.8,  -12.6,  -12.7,  -13.1,  -12.4,  -12.2,  -12.7,  -13.0,  -13.1,  -13.6,  -13.8,  -15.1,  -14.7,  -13.1,  999.0,  999.0,  999.0,  999.0,  999.0,   32.1,   32.3,   32.4,   32.0,   32.0,   31.8,   31.6,   31.6,   31.4,   31.4,   31.5,   31.4,   31.4,   31.0,   30.8,   30.5,   30.4,   30.1,   29.4,   28.7,   28.3,   28.0,   27.9,   28.2,   28.7,   29.1,   29.3,   29.4,   29.7,   30.1,   30.2,   30.6,   30.3,   30.6,   30.7,   30.8
2013/06/19 18:40,    7.3,    8.6,   10.1,   10.3,   11.0,   11.8,   12.6,   14.7,   15.3,   15.1,  999.0,  999.0,  999.0,   -5.7,   -4.1,   -9.7,  -17.1,  -16.4,  -15.9,  -15.8,  -16.0,  -14.9,  -14.3,  -13.4,  -12.2,  -11.9,  -10.8,  -11.3,  -10.8,  -11.3,  -10.6,  -11.3,  -12.1,  -11.5,  -11.4,  -12.2,  -12.9,  -13.1,  -12.7,  -12.8,  999.0,  999.0,  999.0,  999.0,   32.8,   31.9,   32.1,   32.2,   31.8,   32.0,   32.2,   32.1,   31.6,   31.4,   30.9,   30.5,   29.9,   29.6,   29.1,   29.0,   28.6,   28.3,   28.4,   28.2,   28.1,   28.1,   28.2,   28.0,   28.0,   28.6,   28.8,   28.7,   28.2,   28.2,   28.6,   28.3,   28.1,   28.2,   28.0,   28.0
2013/06/19 18:50,    6.5,    8.7,    9.7,   10.2,   11.0,   12.3,   12.4,   14.0,   14.2,   11.6,   15.8,   10.7,  999.0,  999.0,  999.0,  999.0,  999.0,  999.0,  -21.0,  -20.1,  -20.2,  -17.6,  -16.7,  -14.9,  -15.1,  -14.0,  -13.6,  -12.5,  -11.9,  -12.1,  -12.5,  -13.4,  -13.9,  -14.3,  -14.5,  -15.1,  -15.8,  -14.6,  -14.8,  -15.1,  -14.4,  999.0,  999.0,  999.0,   23.4,   31.4,   31.5,   31.4,   31.3,   31.3,   31.2,   31.1,   31.5,   31.4,   31.2,   31.0,   30.1,   29.0,   28.4,   27.8,   27.1,   27.0,   26.9,   27.3,   27.4,   27.5,   27.6,   27.8,   28.2,   28.4,   28.1,   28.2,   27.9,   28.1,   28.0,   28.2,   28.2,   28.0,   28.1,   28.0
2013/06/19 19:00,    5.5,    6.2,    8.8,    9.3,   10.1,   11.3,   11.6,   12.1,   12.7,   12.7,   13.6,   13.7,   14.2,   14.4,   16.2,   15.4,   17.2,   17.4,   18.7,  999.0,  999.0,  999.0,  999.0,  999.0,  -19.0,  -18.1,  -16.7,  -15.8,  -15.6,  -14.1,  -13.6,  -13.6,  -12.8,  -13.4,  -14.2,  -14.3,  -14.6,  -14.8,  -16.1,  -15.5,  -14.3,  999.0,  999.0,  999.0,   30.5,   29.8,   28.7,   28.7,   28.5,   28.5,   28.7,   28.9,   29.3,   29.6,   29.6,   29.7,   29.6,   29.1,   28.3,   27.6,   27.5,   27.8,   28.0,   28.9,   28.7,   29.0,   28.9,   29.0,   28.9,   28.8,   28.6,   28.6,   28.8,   28.8,   28.9,   28.0,   27.7,   27.6,   27.4,   27.9
2013/06/19 19:10,    4.3,    6.3,    7.5,    8.2,    8.9,    9.4,    9.8,   10.6,   11.7,   12.8,   13.6,   14.1,   14.5,   14.0,   14.1,   14.0,   14.9,   14.6,   14.1,   14.6,   15.5,   15.7,   17.5,   18.0,   18.4,   18.0,   18.8,   19.1,  999.0,   21.3,  999.0,  999.0,  -12.7,  -11.7,  -12.3,  -11.6,  -13.0,  -14.4,  -15.0,  -15.9,  -15.7,  999.0,  999.0,   27.5,   27.4,   26.1,   25.9,   26.0,   26.1,   26.2,   26.6,   25.0,   25.6,   25.9,   26.5,   27.4,   28.0,   28.2,   28.5,   28.7,   29.1,   29.6,   29.7,   29.7,   29.0,   29.3,   29.4,   28.8,   28.8,   28.5,   28.3,   28.2,   28.0,   28.1,   27.9,   27.9,   27.3,   27.0,   27.2,   27.1
2013/06/19 19:20,    4.6,    6.4,    6.3,    8.8,    9.1,    9.6,   11.2,   12.3,   -1.3,   -4.9,   -4.3,  -15.9,   -4.3,   -6.0,  999.0,   15.1,   15.4,   15.0,   15.3,   15.3,   16.3,    9.1,  999.0,  999.0,  999.0,    9.5,   18.2,   -4.1,    1.1,   -3.0,   -6.6,   -9.6,  -22.2,  -19.3,  -20.1,  -21.5,  -20.2,  -17.5,  -18.0,  999.0,  999.0,  999.0,   27.6,   28.0,   27.8,   27.6,   27.6,   27.9,   28.2,   28.5,   28.5,   28.5,   28.6,   28.6,   28.6,   28.6,   28.6,   28.8,   29.0,   28.7,   28.0,   27.8,   27.9,   27.9,   28.1,   28.6,   28.2,   28.0,   28.0,   27.5,   27.4,   27.4,   27.7,   27.7,   27.7,   28.2,   28.5,   28.8,   28.7,   28.7
2013/06/19 19:30,  999.0,  999.0,   13.0,  999.0,  999.0,  999.0,  -22.3,  -21.9,  -22.5,  -21.9,  -22.1,  -23.3,  -23.9,  -24.3,  -24.7,  999.0,  999.0,  999.0,  999.0,   14.0,   12.4,   12.6,   13.4,   14.5,   14.7,   15.1,   15.7,   15.2,   15.0,   17.0,   14.5,  999.0,   -2.7,   -2.0,  999.0,  999.0,   -1.2,  999.0,  999.0,  -20.8,  999.0,  999.0,   27.4,   27.0,   26.5,   26.5,   26.4,   25.9,   25.7,   25.8,   26.0,   26.3,   26.7,   27.2,   27.4,   27.9,   28.2,   28.6,   29.3,   29.7,   30.1,   30.0,   29.7,   29.4,   28.6,   28.9,   29.5,   29.2,   28.6,   28.2,   27.5,   26.1,   26.3,   26.8,   27.9,   28.5,   29.2,   29.5,   29.4,   29.4
2013/06/19 19:40,  999.0,  999.0,   12.8,  999.0,   14.2,   15.4,  999.0,  999.0,  999.0,   -7.2,  -10.3,   -9.6,  -11.8,  -21.2,  -21.9,  -22.9,  -24.5,  -24.5,  999.0,  999.0,  999.0,   15.7,   13.8,   13.5,   13.6,   13.3,    2.5,   14.1,    4.3,    5.2,    7.2,    5.1,    5.9,   16.9,    6.3,   -2.0,   -2.3,  999.0,  -10.1,  -22.7,  -21.7,  999.0,  999.0,   23.0,   24.8,   25.4,   24.3,   24.0,   24.3,   24.3,   24.8,   24.7,   25.0,   25.7,   26.3,   27.3,   28.2,   28.0,   28.7,   29.2,   29.3,   29.3,   29.5,   29.7,   30.0,   29.6,   29.5,   29.2,   28.9,   28.9,   28.6,   28.2,   28.2,   28.1,   27.9,   28.1,   29.0,   29.6,   29.5,   30.4
2013/06/19 19:50,  999.0,    5.8,    7.4,   10.2,   12.2,   12.9,   12.4,   13.0,   13.3,   14.0,   14.5,   17.4,  999.0,  999.0,  999.0,  -22.6,  -24.9,  -25.4,  -27.0,  -27.7,  -27.7,  -28.2,  -15.3,  -17.8,  -14.1,  -18.9,  -15.8,  -27.7,  -28.0,  -27.0,  -26.7,  -26.2,  -25.9,  -26.1,  -24.7,  -24.4,  -24.5,  -23.9,  -23.5,  999.0,  999.0,  999.0,  999.0,   22.0,   22.0,   22.5,   22.2,   21.8,   21.7,   22.3,   22.6,   22.8,   23.0,   23.5,   23.6,   24.2,   24.5,   24.9,   25.1,   25.1,   25.6,   26.4,   27.0,   27.4,   27.6,   27.8,   27.8,   27.8,   28.0,   28.1,   28.3,   28.7,   28.9,   28.6,   28.2,   28.1,   28.3,   28.3,   28.5,   28.7
2013/06/19 20:00,    1.8,    3.5,    5.1,    6.6,    7.7,    8.6,    9.9,   11.7,   13.1,   13.9,   15.1,   17.2,   18.0,   18.2,   17.1,   16.1,   16.0,   16.6,   17.2,   17.1,   16.4,   16.2,  999.0,  999.0,  999.0,  999.0,  -24.8,  -24.1,  -24.1,  -23.6,  -22.8,  -23.2,  -23.1,  -22.8,  -24.0,  -22.3,  -22.0,  -22.8,  -21.0,  -19.5,  999.0,  999.0,  999.0,  999.0,   28.0,   28.1,   27.5,   26.8,   26.3,   26.0,   26.0,   25.6,   25.5,   25.9,   26.3,   26.5,   26.4,   26.2,   26.2,   26.2,   26.1,   26.0,   25.9,   25.9,   26.2,   26.7,   27.2,   27.5,   27.8,   28.3,   28.6,   28.5,   28.7,   29.2,   29.7,   29.8,   29.6,   29.7,   29.8,   29.6
2013/06/19 20:10,    2.9,    3.2,    4.1,    5.5,    6.6,    8.7,   11.5,   12.6,   14.6,   15.8,   17.6,    4.4,   17.4,   15.8,   15.6,   15.1,   15.5,   15.6,   15.5,   15.9,   15.9,   16.1,  999.0,  999.0,  999.0,   -2.6,   -2.0,  -23.7,  -23.6,  -23.7,  -22.8,  -22.3,  -22.2,  -21.8,  -22.2,  -20.5,  -19.8,  -20.1,  -18.8,  -18.2,  999.0,  999.0,  999.0,  999.0,   30.1,   29.4,   29.0,   29.3,   28.9,   28.9,   28.9,   28.9,   28.7,   28.5,   28.2,   28.0,   27.7,   27.7,   27.7,   27.9,   28.0,   28.0,   27.9,   27.7,   27.8,   27.5,   27.7,   28.1,   28.4,   28.2,   28.4,   29.2,   29.5,   29.6,   29.7,   29.7,   30.1,   29.7,   29.5,   29.5
2013/06/19 20:20,    4.7,    5.2,    5.1,    6.0,    7.9,    9.6,   11.1,   13.4,   14.9,   -5.6,  -25.3,  -24.0,  -24.0,  -24.5,  -25.2,  -25.6,  -25.9,   -2.2,   -2.3,   -1.6,   -1.4,    5.8,    6.0,    6.7,    6.4,   17.2,    7.3,   -3.7,  -24.1,  999.0,  -23.8,  -23.4,  -23.2,  -22.7,  999.0,   -9.6,  -11.8,  -15.3,  -14.2,  999.0,  999.0,  999.0,   20.8,   21.7,   24.9,   25.0,   25.1,   24.6,   24.9,   25.8,   26.4,   27.0,   27.1,   27.2,   27.1,   26.9,   27.0,   26.9,   26.8,   26.6,   26.7,   26.8,   26.5,   27.0,   27.4,   27.4,   27.6,   28.0,   28.4,   28.3,   28.6,   29.1,   29.7,   30.7,   31.3,   31.7,   31.6,   31.0,   30.4,   30.4
2013/06/19 20:30,    4.5,    6.3,    6.4,    7.7,    7.7,    8.5,   12.7,  999.0,  999.0,  999.0,  -24.2,  -23.8,  -16.3,  -14.4,    5.9,   -6.2,   -4.6,    2.3,    5.9,    5.8,    5.7,    6.4,    7.4,    7.6,    3.4,    3.5,    3.6,   18.7,  999.0,  999.0,  999.0,  999.0,   -9.6,   -9.7,   -3.1,   -3.6,   -2.2,   -1.3,    5.0,  999.0,  999.0,   19.6,   20.4,   22.2,   22.7,   22.6,   23.5,   24.5,   25.0,   25.4,   25.5,   25.5,   25.6,   26.4,   26.9,   26.6,   26.5,   26.4,   26.5,   26.7,   26.8,   26.7,   26.6,   26.5,   26.4,   26.4,   26.8,   27.2,   27.4,   28.0,   28.0,   28.0,   28.1,   28.3,   28.9,   29.5,   29.5,   29.6,   29.7,   29.6
2013/06/19 20:40,    3.4,    5.0,    7.1,    7.7,    9.0,   11.6,  999.0,  999.0,  999.0,  -23.3,  -22.7,  -22.1,  -22.8,  -24.2,  -24.0,  999.0,  999.0,  999.0,  999.0,   14.7,    9.2,   14.2,   14.3,    9.9,   14.2,   14.4,   14.3,   15.1,   15.0,   15.3,   14.8,   14.8,   14.9,    1.0,    1.4,   -5.5,    1.8,    5.4,   -4.5,  999.0,   16.2,   17.0,   17.1,   18.3,   19.5,  999.0,   21.9,   22.2,   23.8,   23.1,   22.8,   23.3,   24.6,   25.0,   24.5,   24.9,   25.6,   25.9,   26.3,   26.5,   27.5,   26.9,   27.4,   27.4,   27.3,   27.0,   26.8,   26.6,   26.5,   26.9,   27.3,   27.8,   28.2,   28.4,   28.3,   28.4,   28.9,   29.3,   29.6,   29.9
2013/06/19 20:50,    2.8,    4.8,    6.6,    8.3,    9.0,   11.1,   13.3,  999.0,  999.0,  999.0,  -21.8,  -21.2,  -21.8,  -22.9,  -23.0,  -24.0,  999.0,  999.0,   14.4,   15.3,   15.3,   15.6,   15.9,   15.9,   16.0,   16.3,    6.0,    2.1,    5.7,    2.5,    6.1,  999.0,  999.0,  999.0,  -24.7,  -25.0,  -24.7,  -24.7,  999.0,  -23.8,  999.0,  999.0,   21.5,   22.2,   22.4,   22.7,   22.8,   23.2,   23.7,   24.0,   24.2,   24.4,   24.9,   25.6,   26.4,   27.1,   27.7,   28.2,   28.2,   28.5,   28.6,   28.5,   28.6,   28.6,   28.8,   28.9,   29.2,   29.0,   29.1,   29.4,   29.8,   29.6,   29.5,   29.1,   29.1,   29.4,   29.6,   30.0,   30.2,   30.7
2013/06/19 21:00,    2.9,    4.0,    6.6,    8.3,    9.3,    9.3,   12.4,  999.0,  999.0,  -25.4,  -23.1,  -21.9,  -21.1,  -21.0,  -21.7,  -22.4,  -23.5,  -24.5,  -15.2,  -15.4,  -15.6,  -27.2,  -26.4,  -26.2,  -26.5,  -26.0,  -25.9,  -25.5,  -24.9,  -25.0,  -24.7,  -24.5,  -24.6,  -24.5,  -24.5,  -24.6,  -24.5,  -24.8,  -24.4,  -23.1,  999.0,  999.0,  999.0,   21.5,   23.0,   23.5,   22.8,   22.7,   23.2,   23.4,   23.7,   24.7,   24.7,   24.9,   25.2,   26.2,   26.6,   27.1,   27.4,   28.3,   28.3,   28.4,   28.6,   28.9,   29.1,   29.5,   29.9,   30.1,   30.6,   30.7,   31.3,   30.9,   30.3,   29.9,   29.8,   29.1,   29.0,   29.6,   29.6,   29.5
2013/06/19 21:10,    3.4,    4.4,    6.4,    8.2,    9.7,    9.4,   11.2,   13.2,  999.0,  999.0,  -26.1,  -24.5,  -23.7,  -22.7,  -22.0,  -23.0,  -25.0,  -25.8,  -27.0,  -27.6,  -28.4,  -28.2,  -27.8,  -27.2,  -27.0,  -26.6,  -26.3,  -26.0,  -25.8,  -26.3,  -25.9,  -25.5,  -25.5,  -25.5,  -24.8,  -24.5,  -25.2,  -23.6,  -22.6,  999.0,  999.0,  999.0,   22.4,   23.0,   23.5,   22.9,   22.9,   23.0,   23.2,   23.6,   24.0,   24.6,   25.7,   26.2,   26.6,   27.3,   27.9,   27.7,   27.7,   27.7,   27.8,   28.2,   28.4,   28.5,   28.7,   28.7,   28.8,   28.7,   28.8,   28.8,   29.1,   29.3,   29.6,   29.7,   29.8,   29.8,   29.5,   29.7,   29.6,   29.3
2013/06/19 21:20,    2.8,    4.6,    6.2,    8.4,   11.2,   11.7,   10.3,   11.5,   13.6,   14.3,  999.0,  999.0,  999.0,  999.0,  999.0,  -22.2,  -22.8,  -24.0,  -24.8,  999.0,  999.0,  999.0,  999.0,  999.0,  -26.1,  -25.5,  -25.9,  -25.7,  -25.6,  -25.6,  -25.0,  -24.7,  -25.0,  -24.6,  -24.3,  -24.0,  -24.3,  -24.8,  -25.7,  -24.3,  999.0,  999.0,  999.0,  999.0,   19.3,   21.1,   20.6,   19.3,   20.5,   21.6,   22.6,   23.5,   25.1,   25.7,   26.4,   26.8,   26.8,   26.9,   27.1,   27.5,   27.9,   28.3,   28.3,   28.5,   28.7,   28.8,   29.1,   29.3,   29.6,   29.9,   30.3,   30.7,   31.1,   30.9,   30.9,   30.9,   31.1,   31.2,   31.5,   31.8
2013/06/19 21:30,  999.0,    4.8,    6.8,    8.5,   11.0,   11.5,   10.2,   11.1,   12.7,   14.6,  999.0,  999.0,  999.0,  999.0,  -23.3,  -23.5,  -23.3,  -22.5,  -23.8,  999.0,  999.0,  999.0,  999.0,  999.0,  999.0,  999.0,  -25.6,  -25.4,  -25.6,  -25.7,  -25.4,  -25.2,  -24.5,  -23.7,  -23.2,  -23.2,  -23.0,  -23.4,  -23.7,  -23.4,  999.0,  999.0,  999.0,  999.0,   22.3,   22.8,   22.5,   23.0,   23.4,   23.9,   24.7,   25.6,   26.2,   26.7,   27.2,   27.5,   27.7,   27.9,   27.9,   27.9,   28.3,   28.4,   28.4,   28.3,   28.5,   28.6,   28.9,   29.2,   29.5,   30.2,   30.9,   31.4,   31.6,   31.5,   31.8,   31.7,   32.3,   32.7,   32.9,   33.0
2013/06/19 21:40,    2.5,    4.1,    7.1,    9.2,   11.4,   12.4,   11.4,   12.0,   12.8,   13.7,   15.6,   17.4,   19.3,   -8.0,  -13.8,  -14.9,  -14.4,  -12.0,   -2.8,    3.5,   17.3,   17.0,   17.2,   16.8,    8.1,    8.4,    6.3,    3.9,   -7.7,   -7.5,   -7.7,   -7.1,  -13.4,   -1.9,   -1.8,  -12.1,  -22.8,  -22.2,  -22.5,  -21.9,  999.0,  999.0,  999.0,  999.0,   26.0,   24.8,   24.6,   24.6,   24.4,   25.3,   25.5,   26.1,   26.6,   26.9,   26.8,   27.1,   26.8,   27.1,   26.9,   27.2,   27.9,   28.3,   28.9,   29.8,   31.1,   31.6,   31.6,   31.7,   32.3,   32.1,   32.1,   32.5,   32.7,   32.4,   32.6,   32.8,   32.6,   32.9,   32.9,   32.7
2013/06/19 21:50,  999.0,  999.0,    7.2,    8.9,   10.7,   11.6,   11.6,   12.3,   12.8,   14.5,   16.1,   17.6,  999.0,  999.0,  999.0,   -6.7,  999.0,  999.0,  999.0,  999.0,   16.8,   16.8,   16.9,   17.0,   17.2,   17.8,   17.9,   17.3,   17.9,   17.8,   17.6,   17.5,  999.0,  999.0,  999.0,  -24.4,  -23.4,  -22.3,  -22.6,  -22.1,  999.0,   19.3,  999.0,  999.0,   24.1,   23.7,   23.4,   23.1,   24.2,   23.9,   24.4,   24.9,   25.8,   26.2,   26.3,   26.7,   27.1,   27.0,   27.1,   27.0,   27.0,   27.6,   28.6,   29.2,   30.1,   30.5,   31.0,   31.3,   32.5,   32.1,   31.8,   32.1,   32.1,   33.1,   32.4,   32.7,   33.4,   33.0,   34.1,   33.3
2013/06/19 22:00,  999.0,  999.0,    7.6,    9.3,   11.1,   12.2,   12.2,   11.4,   12.3,   13.9,   15.6,   17.3,  999.0,  999.0,  999.0,  999.0,  -20.7,  999.0,  999.0,  999.0,  999.0,   17.5,   16.9,   17.1,   17.7,   17.7,   17.9,   17.6,   17.6,   17.4,   16.8,   16.7,   16.9,   17.1,   17.7,   18.4,   18.9,   19.3,   20.1,   20.7,   21.9,   22.6,   24.0,   24.8,   26.4,   26.4,   26.3,   26.4,   26.6,   26.3,   26.2,   26.2,   26.7,   26.4,   26.4,   26.3,   26.4,   26.1,   26.2,   26.2,   26.5,   27.0,   27.8,   28.5,   28.9,   29.0,   29.5,   29.8,   30.1,   30.8,   30.5,   31.0,   31.6,   32.5,   31.8,   32.0,   32.3,  999.0,  999.0,  999.0
2013/06/19 22:10,    2.8,    4.3,    6.0,    7.5,    9.3,   10.4,   11.7,   11.8,   11.9,   13.0,   15.3,   16.4,   17.3,   18.2,   19.6,   22.3,   22.9,   23.0,   21.3,   19.9,   18.3,   18.2,   18.3,   17.7,   18.1,   18.0,   19.0,   18.5,   17.2,   17.7,   17.9,   18.3,   19.4,   20.3,   21.1,   21.1,   21.2,   22.5,   22.6,   22.9,   24.4,   24.5,   24.0,   24.8,   26.0,   27.4,   26.9,   27.3,   27.3,   27.3,   27.4,   28.0,   28.8,   28.5,  999.0,   27.7,   26.4,  999.0,  999.0,  999.0,  999.0,  999.0,  999.0,  999.0,  999.0,  999.0,  999.0,  999.0,  999.0,  999.0,  999.0,  999.0,  999.0,  999.0,  999.0,  999.0,  999.0,  999.0,  999.0,  999.0
2013/06/19 22:20,    4.3,    6.2,    8.1,    9.4,    9.8,   10.3,   11.8,   12.5,   12.9,   12.5,   14.2,   16.1,   17.2,   18.1,   19.2,   20.2,   21.0,   21.8,   20.9,   20.4,   19.8,   19.3,   18.6,   18.1,   17.7,   17.9,   18.1,   17.8,   17.8,   17.6,   17.9,   17.9,   18.4,   19.0,   19.7,   20.4,   20.9,   20.9,   21.3,   21.9,   22.7,   23.0,   24.1,   24.3,   25.0,   26.7,   26.0,   26.3,   26.4,   26.5,   26.9,   27.4,   27.9,   28.1,   28.3,   28.5,   29.3,  999.0,  999.0,  999.0,  999.0,  999.0,  999.0,  999.0,  999.0,  999.0,  999.0,  999.0,  999.0,  999.0,  999.0,  999.0,  999.0,  999.0,  999.0,  999.0,  999.0,  999.0,  999.0,  999.0
2013/06/19 22:30,    5.1,    6.0,    8.9,    9.6,    9.9,   10.6,   12.6,   12.7,   13.2,   13.5,   13.5,   14.8,   16.5,   17.2,   18.2,   19.8,   21.5,   22.1,   20.9,   20.1,   19.3,   18.5,   18.2,   18.0,   18.1,   18.4,   18.4,   18.0,   18.5,   18.7,   18.3,   18.6,   18.7,   18.6,   18.6,   18.8,   19.5,   19.7,   19.6,   20.1,   20.5,   20.8,   20.9,   22.0,   22.8,   23.3,   23.0,   23.4,   23.7,   23.8,   23.9,   23.9,   24.7,   24.8,   25.0,   25.6,   26.3,   26.7,   26.6,   27.0,   26.7,   27.7,   29.0,   29.6,   29.3,   30.5,   28.9,  999.0,  999.0,  999.0,  999.0,  999.0,  999.0,  999.0,  999.0,  999.0,  999.0,  999.0,  999.0,  999.0
2013/06/19 22:40,    3.4,    4.4,    6.1,    6.6,    7.3,    8.2,    9.2,   10.7,   11.3,   12.7,   13.2,   14.3,   15.8,   16.7,   17.8,   18.8,   20.0,   21.0,   19.7,   18.2,   18.2,   17.8,   17.8,   17.5,   17.3,   17.7,   18.0,   18.6,   20.1,   20.6,   21.2,   22.1,   22.0,   22.2,   23.1,   22.5,   22.4,   21.8,   21.6,   20.7,  999.0,  999.0,   21.7,  999.0,   23.8,   25.1,   25.1,   25.6,   26.3,   27.5,   27.7,   28.3,   28.6,   28.0,   27.6,   27.8,   27.6,   27.7,  999.0,  999.0,  999.0,  999.0,  999.0,  999.0,  999.0,  999.0,  999.0,  999.0,  999.0,  999.0,  999.0,  999.0,  999.0,  999.0,  999.0,  999.0,  999.0,  999.0,  999.0,  999.0
2013/06/19 22:50,    3.8,    3.5,    4.5,    5.5,    5.6,    7.0,    8.1,    8.8,   10.0,   11.3,   13.0,   14.3,   15.7,   16.7,   17.4,   18.4,   19.4,   19.7,   19.2,   18.9,   18.0,   17.6,   17.7,   17.4,   17.2,   17.3,   16.8,   18.1,   18.2,   19.2,   20.2,   19.8,   20.6,   21.0,   21.2,   23.1,   23.6,   23.6,   24.3,   23.8,   24.8,   24.7,   24.1,   25.2,   23.7,  999.0,   27.7,   26.9,   28.3,  999.0,  999.0,  999.0,  999.0,  999.0,  999.0,  999.0,  999.0,  999.0,  999.0,  999.0,  999.0,  999.0,  999.0,  999.0,  999.0,  999.0,  999.0,  999.0,  999.0,  999.0,  999.0,  999.0,  999.0,  999.0,  999.0,  999.0,  999.0,  999.0,  999.0,  999.0
2013/06/19 23:00,    3.6,    4.0,    6.0,    7.5,    8.5,    8.8,    9.6,   11.4,   13.6,   14.2,   13.5,   14.0,   14.6,   14.9,   15.9,   16.8,   17.7,   18.2,   19.1,   19.7,   20.8,   20.6,   -5.3,   -5.8,   -3.1,   -2.6,   -7.3,   -3.2,   -7.8,   -2.9,    4.2,    3.2,    3.8,    3.2,    4.5,   -3.5,    5.2,    5.7,    6.4,  999.0,  999.0,   26.5,   20.1,  999.0,   21.7,   23.6,   24.3,   24.1,   23.7,   24.5,   25.0,   25.5,   25.9,   26.0,   26.0,   26.1,   26.6,   27.3,   27.9,   28.4,   29.4,   29.1,   29.2,  999.0,  999.0,  999.0,  999.0,  999.0,  999.0,  999.0,  999.0,  999.0,  999.0,  999.0,  999.0,  999.0,  999.0,  999.0,  999.0,  999.0
2013/06/19 23:10,    4.8,    5.3,    6.7,    7.9,    8.0,    8.5,    9.5,   11.5,   12.6,   13.4,   13.4,   14.3,   14.1,   14.6,   15.5,   15.8,   16.0,   16.7,   -4.3,  -10.7,  -13.8,  -13.3,  -13.0,  -12.8,   -5.9,   -6.3,   -6.3,   -6.6,   -6.8,   -7.2,   -7.4,   -7.7,   -8.3,   -8.9,   -4.8,   -3.8,   -3.6,   -3.6,    6.0,    3.7,    4.6,   20.1,   21.2,  999.0,  999.0,   22.9,   22.6,   23.0,   23.7,   24.0,   25.1,   25.5,   26.0,   26.5,   27.0,   26.9,   27.1,  999.0,  999.0,  999.0,   28.6,   29.3,   30.3,   30.4,   31.1,  999.0,   31.7,  999.0,   31.8,   31.5,  999.0,  999.0,  999.0,  999.0,  999.0,  999.0,  999.0,  999.0,  999.0,  999.0
2013/06/19 23:20,    4.4,    5.5,    7.1,    8.5,   10.1,   12.2,   14.3,   14.2,   13.7,   13.4,   13.5,   13.6,   14.6,   15.9,   16.5,   17.0,   17.8,   18.1,   18.6,   18.2,   18.4,   18.1,   18.1,   18.4,   19.1,   20.5,   21.1,   21.2,   20.6,   20.6,   19.8,   19.8,   19.2,   19.2,   19.2,   19.1,   18.8,   19.6,   20.4,   21.8,   23.3,   24.5,   23.9,   23.2,   24.0,   25.3,   23.9,   24.1,   25.0,   26.2,   28.7,   27.9,   28.6,   29.1,   29.0,   29.1,   30.3,  999.0,  999.0,  999.0,  999.0,  999.0,  999.0,  999.0,  999.0,  999.0,  999.0,  999.0,  999.0,  999.0,  999.0,  999.0,  999.0,  999.0,  999.0,  999.0,  999.0,  999.0,  999.0,  999.0
2013/06/19 23:30,    4.3,    7.3,    9.5,   10.7,   12.2,   14.1,   14.9,   15.8,   14.7,   13.9,   14.1,   14.0,   15.6,   17.0,   17.5,   18.1,   18.3,   18.7,   17.4,   17.1,    5.2,   -4.8,    6.2,   -1.4,   -8.4,   21.3,   21.4,   22.2,   21.5,   21.0,   21.5,   20.2,   19.9,   18.5,   14.3,   10.2,   10.8,   21.1,   12.3,   22.0,   13.3,   26.2,   25.4,   25.7,   26.8,   27.3,   27.5,   27.6,   27.7,   27.7,   27.5,   27.3,   27.1,   27.9,   28.6,   29.3,   29.6,   28.9,   28.8,  999.0,   28.9,  999.0,  999.0,  999.0,  999.0,  999.0,  999.0,  999.0,  999.0,  999.0,  999.0,  999.0,  999.0,  999.0,  999.0,  999.0,  999.0,  999.0,  999.0,  999.0
2013/06/19 23:40,  999.0,   10.7,   13.0,   13.8,   14.8,   15.4,   16.6,   15.7,   15.3,   14.5,   14.1,   14.1,   15.8,   15.7,  999.0,  999.0,  -24.8,  -24.5,  -24.1,  -23.5,  -21.8,  -21.1,  -21.1,  -21.6,  -21.9,  -23.4,  -23.4,  -22.7,  -23.2,  -21.8,  -22.6,  -22.6,  -22.1,  -21.5,  -21.5,  -21.3,  -21.0,  -22.4,  -22.7,  -22.0,  999.0,  999.0,  999.0,  999.0,   24.6,   25.6,   25.2,   25.5,   25.6,   25.6,   26.3,   26.8,   26.9,   27.0,   27.0,   26.9,   26.8,   26.6,   26.8,   25.2,   26.0,   26.4,   27.0,   27.3,   26.8,   27.8,   28.0,   27.6,   28.1,   28.4,   29.3,   30.3,   31.2,   31.7,   32.4,  999.0,   31.6,  999.0,  999.0,  999.0
2013/06/19 23:50,    8.7,   11.9,   14.0,   15.1,   15.0,   15.4,   16.5,   16.9,   17.3,   16.1,   15.4,   15.1,   14.9,   14.9,   15.5,   15.8,   16.7,    6.4,   -3.6,   -2.1,  -16.0,  -20.0,  -20.4,  -21.6,  -23.3,  -23.3,  -23.4,  -17.7,  -13.1,  -18.3,  -18.1,  -17.8,  -14.2,  -14.0,  -14.3,  -14.3,  -13.7,  -13.9,  -12.1,  -11.2,  999.0,  999.0,   21.7,  999.0,   24.6,   24.5,   24.4,   25.0,   25.4,   25.0,   25.2,   25.2,   25.8,   26.6,   27.0,   27.5,   27.5,   27.5,   26.7,   27.4,   27.2,   27.6,   28.2,   28.5,   29.3,   28.9,   29.6,   30.3,   31.1,   30.7,   31.4,   31.5,  999.0,  999.0,  999.0,  999.0,  999.0,  999.0,  999.0,  999.0
